Wetterdaten: Freitag, 03.05.2013
Datum Zeit Temp. Aussen +5cm Feuchte Auss Luftdruck Regen Sonnenschein Regendauer UV Solar Windben
03.05.2013 00:00 13,9 C 12,3 C 72 % 1018,2 hPa 0,0 l/m 0 min 0 min 0,0 UV-I 0 W/m 0,0 km/h (0 Bft)
03.05.2013 00:02 13,8 C 12,3 C 72 % 1018,2 hPa 0,0 l/m 0 min 0 min 0,0 UV-I 0 W/m 2,6 km/h (1 Bft)
03.05.2013 00:04 13,8 C 12,3 C 72 % 1018,1 hPa 0,0 l/m 0 min 0 min 0,0 UV-I 0 W/m 0,0 km/h (0 Bft)
03.05.2013 00:06 13,8 C 12,3 C 72 % 1018,2 hPa 0,0 l/m 0 min 0 min 0,0 UV-I 0 W/m 0,0 km/h (0 Bft)
03.05.2013 00:08 13,7 C 12,3 C 73 % 1018,2 hPa 0,0 l/m 0 min 0 min 0,0 UV-I 0 W/m 0,0 km/h (0 Bft)
03.05.2013 00:10 13,7 C 12,3 C 73 % 1018,2 hPa 0,0 l/m 0 min 0 min 0,0 UV-I 0 W/m 0,0 km/h (0 Bft)
03.05.2013 00:12 13,7 C 11,8 C 73 % 1018,2 hPa 0,0 l/m 0 min 0 min 0,0 UV-I 0 W/m 0,0 km/h (0 Bft)
03.05.2013 00:14 13,7 C 11,8 C 73 % 1018,1 hPa 0,0 l/m 0 min 0 min 0,0 UV-I 0 W/m 2,6 km/h (1 Bft)
03.05.2013 00:16 13,6 C 11,8 C 73 % 1018,1 hPa 0,0 l/m 0 min 0 min 0,0 UV-I 0 W/m 2,6 km/h (1 Bft)
03.05.2013 00:18 13,6 C 11,8 C 73 % 1018,1 hPa 0,0 l/m 0 min 0 min 0,0 UV-I 0 W/m 0,0 km/h (0 Bft)
03.05.2013 00:20 13,5 C 11,8 C 73 % 1018,1 hPa 0,0 l/m 0 min 0 min 0,0 UV-I 0 W/m 2,6 km/h (1 Bft)
03.05.2013 00:22 13,4 C 11,8 C 73 % 1018,0 hPa 0,0 l/m 0 min 0 min 0,0 UV-I 0 W/m 0,0 km/h (0 Bft)
03.05.2013 00:24 13,4 C 11,8 C 74 % 1018,0 hPa 0,0 l/m 0 min 0 min 0,0 UV-I 0 W/m 0,0 km/h (0 Bft)
03.05.2013 00:26 13,4 C 11,8 C 74 % 1018,0 hPa 0,0 l/m 0 min 0 min 0,0 UV-I 0 W/m 0,0 km/h (0 Bft)
03.05.2013 00:28 13,4 C 11,8 C 74 % 1018,0 hPa 0,0 l/m 0 min 0 min 0,0 UV-I 0 W/m 0,0 km/h (0 Bft)
03.05.2013 00:30 13,3 C 11,8 C 74 % 1018,0 hPa 0,0 l/m 0 min 0 min 0,0 UV-I 0 W/m 0,0 km/h (0 Bft)
03.05.2013 00:32 13,3 C 11,8 C 74 % 1018,0 hPa 0,0 l/m 0 min 0 min 0,0 UV-I 0 W/m 2,6 km/h (1 Bft)
03.05.2013 00:34 13,3 C 11,8 C 74 % 1018,0 hPa 0,0 l/m 0 min 0 min 0,0 UV-I 0 W/m 2,6 km/h (1 Bft)
03.05.2013 00:36 13,2 C 11,8 C 74 % 1018,1 hPa 0,0 l/m 0 min 0 min 0,0 UV-I 0 W/m 0,0 km/h (0 Bft)
03.05.2013 00:38 13,2 C 11,8 C 74 % 1018,0 hPa 0,0 l/m 0 min 0 min 0,0 UV-I 0 W/m 0,0 km/h (0 Bft)
03.05.2013 00:40 13,2 C 11,8 C 74 % 1018,0 hPa 0,0 l/m 0 min 0 min 0,0 UV-I 0 W/m 0,0 km/h (0 Bft)
03.05.2013 00:42 13,1 C 11,8 C 75 % 1018,0 hPa 0,0 l/m 0 min 0 min 0,0 UV-I 0 W/m 7,7 km/h (2 Bft)
03.05.2013 00:44 13,1 C 11,8 C 75 % 1018,0 hPa 0,0 l/m 0 min 0 min 0,0 UV-I 0 W/m 2,6 km/h (1 Bft)
03.05.2013 00:46 13,1 C 11,2 C 75 % 1018,0 hPa 0,0 l/m 0 min 0 min 0,0 UV-I 0 W/m 0,0 km/h (0 Bft)
03.05.2013 00:48 13,0 C 11,2 C 75 % 1018,0 hPa 0,0 l/m 0 min 0 min 0,0 UV-I 0 W/m 0,0 km/h (0 Bft)
03.05.2013 00:50 12,9 C 11,2 C 75 % 1018,0 hPa 0,0 l/m 0 min 0 min 0,0 UV-I 0 W/m 0,0 km/h (0 Bft)
03.05.2013 00:52 12,9 C 11,2 C 75 % 1018,0 hPa 0,0 l/m 0 min 0 min 0,0 UV-I 0 W/m 0,0 km/h (0 Bft)
03.05.2013 00:54 12,9 C 11,2 C 75 % 1018,0 hPa 0,0 l/m 0 min 0 min 0,0 UV-I 0 W/m 2,6 km/h (1 Bft)
03.05.2013 00:56 12,8 C 11,2 C 76 % 1018,1 hPa 0,0 l/m 0 min 0 min 0,0 UV-I 0 W/m 0,0 km/h (0 Bft)
03.05.2013 00:58 12,8 C 11,2 C 76 % 1018,0 hPa 0,0 l/m 0 min 0 min 0,0 UV-I 0 W/m 0,0 km/h (0 Bft)
03.05.2013 01:00 12,8 C 11,2 C 76 % 1018,0 hPa 0,0 l/m 0 min 0 min 0,0 UV-I 0 W/m 2,6 km/h (1 Bft)
03.05.2013 01:02 12,8 C 11,2 C 76 % 1018,0 hPa 0,0 l/m 0 min 0 min 0,0 UV-I 0 W/m 0,0 km/h (0 Bft)
03.05.2013 01:04 12,7 C 11,2 C 76 % 1018,0 hPa 0,0 l/m 0 min 0 min 0,0 UV-I 0 W/m 0,0 km/h (0 Bft)
03.05.2013 01:06 12,7 C 11,2 C 76 % 1018,1 hPa 0,0 l/m 0 min 0 min 0,0 UV-I 0 W/m 0,0 km/h (0 Bft)
03.05.2013 01:08 12,7 C 11,2 C 76 % 1018,1 hPa 0,0 l/m 0 min 0 min 0,0 UV-I 0 W/m 0,0 km/h (0 Bft)
03.05.2013 01:10 12,7 C 11,2 C 76 % 1018,0 hPa 0,0 l/m 0 min 0 min 0,0 UV-I 0 W/m 0,0 km/h (0 Bft)
03.05.2013 01:12 12,6 C 11,2 C 77 % 1018,0 hPa 0,0 l/m 0 min 0 min 0,0 UV-I 0 W/m 0,0 km/h (0 Bft)
03.05.2013 01:14 12,6 C 10,7 C 77 % 1018,0 hPa 0,0 l/m 0 min 0 min 0,0 UV-I 0 W/m 0,0 km/h (0 Bft)
03.05.2013 01:16 12,6 C 10,7 C 77 % 1017,9 hPa 0,0 l/m 0 min 0 min 0,0 UV-I 0 W/m 0,0 km/h (0 Bft)
03.05.2013 01:18 12,6 C 10,7 C 77 % 1018,0 hPa 0,0 l/m 0 min 0 min 0,0 UV-I 0 W/m 0,0 km/h (0 Bft)
03.05.2013 01:20 12,6 C 10,7 C 77 % 1018,0 hPa 0,0 l/m 0 min 0 min 0,0 UV-I 0 W/m 0,0 km/h (0 Bft)
03.05.2013 01:22 12,6 C 10,7 C 77 % 1018,0 hPa 0,0 l/m 0 min 0 min 0,0 UV-I 0 W/m 0,0 km/h (0 Bft)
03.05.2013 01:24 12,5 C 10,7 C 78 % 1017,9 hPa 0,0 l/m 0 min 0 min 0,0 UV-I 0 W/m 0,0 km/h (0 Bft)
03.05.2013 01:26 12,4 C 10,7 C 78 % 1018,0 hPa 0,0 l/m 0 min 0 min 0,0 UV-I 0 W/m 0,0 km/h (0 Bft)
03.05.2013 01:28 12,4 C 10,7 C 78 % 1018,0 hPa 0,0 l/m 0 min 0 min 0,0 UV-I 0 W/m 0,0 km/h (0 Bft)
03.05.2013 01:30 12,4 C 10,7 C 78 % 1018,0 hPa 0,0 l/m 0 min 0 min 0,0 UV-I 0 W/m 0,0 km/h (0 Bft)
03.05.2013 01:32 12,4 C 10,7 C 78 % 1018,0 hPa 0,0 l/m 0 min 0 min 0,0 UV-I 0 W/m 0,0 km/h (0 Bft)
03.05.2013 01:34 12,3 C 10,7 C 78 % 1018,0 hPa 0,0 l/m 0 min 0 min 0,0 UV-I 0 W/m 0,0 km/h (0 Bft)
03.05.2013 01:36 12,3 C 10,7 C 78 % 1018,0 hPa 0,0 l/m 0 min 0 min 0,0 UV-I 0 W/m 0,0 km/h (0 Bft)
03.05.2013 01:38 12,3 C 10,7 C 78 % 1017,9 hPa 0,0 l/m 0 min 0 min 0,0 UV-I 0 W/m 0,0 km/h (0 Bft)
03.05.2013 01:40 12,3 C 10,7 C 78 % 1017,9 hPa 0,0 l/m 0 min 0 min 0,0 UV-I 0 W/m 2,6 km/h (1 Bft)
03.05.2013 01:42 12,2 C 10,7 C 79 % 1018,0 hPa 0,0 l/m 0 min 0 min 0,0 UV-I 0 W/m 2,6 km/h (1 Bft)
03.05.2013 01:44 12,2 C 10,7 C 79 % 1018,0 hPa 0,0 l/m 0 min 0 min 0,0 UV-I 0 W/m 0,0 km/h (0 Bft)
03.05.2013 01:46 12,2 C 10,7 C 79 % 1017,9 hPa 0,0 l/m 0 min 0 min 0,0 UV-I 0 W/m 2,6 km/h (1 Bft)
03.05.2013 01:48 12,2 C 10,7 C 79 % 1017,9 hPa 0,0 l/m 0 min 0 min 0,0 UV-I 0 W/m 0,0 km/h (0 Bft)
03.05.2013 01:50 12,1 C 10,7 C 79 % 1017,9 hPa 0,0 l/m 0 min 0 min 0,0 UV-I 0 W/m 0,0 km/h (0 Bft)
03.05.2013 01:52 12,1 C 10,1 C 79 % 1017,9 hPa 0,0 l/m 0 min 0 min 0,0 UV-I 0 W/m 0,0 km/h (0 Bft)
03.05.2013 01:54 12,1 C 10,1 C 79 % 1017,9 hPa 0,0 l/m 0 min 0 min 0,0 UV-I 0 W/m 0,0 km/h (0 Bft)
03.05.2013 01:56 12,1 C 10,1 C 80 % 1017,9 hPa 0,0 l/m 0 min 0 min 0,0 UV-I 0 W/m 2,6 km/h (1 Bft)
03.05.2013 01:58 12,0 C 10,7 C 80 % 1017,9 hPa 0,0 l/m 0 min 0 min 0,0 UV-I 0 W/m 18,0 km/h (3 Bft)
03.05.2013 02:00 12,0 C 10,7 C 80 % 1017,9 hPa 0,0 l/m 0 min 0 min 0,0 UV-I 0 W/m 0,0 km/h (0 Bft)
03.05.2013 02:02 12,0 C 10,1 C 80 % 1017,9 hPa 0,0 l/m 0 min 0 min 0,0 UV-I 0 W/m 5,1 km/h (1 Bft)
03.05.2013 02:04 11,9 C 10,7 C 80 % 1017,8 hPa 0,0 l/m 0 min 0 min 0,0 UV-I 0 W/m 7,7 km/h (2 Bft)
03.05.2013 02:06 11,9 C 10,7 C 80 % 1017,8 hPa 0,0 l/m 0 min 0 min 0,0 UV-I 0 W/m 7,7 km/h (2 Bft)
03.05.2013 02:08 11,9 C 10,7 C 81 % 1017,8 hPa 0,0 l/m 0 min 0 min 0,0 UV-I 0 W/m 5,1 km/h (1 Bft)
03.05.2013 02:10 11,9 C 10,7 C 81 % 1017,8 hPa 0,0 l/m 0 min 0 min 0,0 UV-I 0 W/m 5,1 km/h (1 Bft)
03.05.2013 02:12 11,9 C 10,7 C 81 % 1017,7 hPa 0,0 l/m 0 min 0 min 0,0 UV-I 0 W/m 0,0 km/h (0 Bft)
03.05.2013 02:14 11,8 C 10,1 C 81 % 1017,7 hPa 0,0 l/m 0 min 0 min 0,0 UV-I 0 W/m 0,0 km/h (0 Bft)
03.05.2013 02:16 11,8 C 10,1 C 81 % 1017,8 hPa 0,0 l/m 0 min 0 min 0,0 UV-I 0 W/m 0,0 km/h (0 Bft)
03.05.2013 02:18 11,8 C 10,1 C 81 % 1017,8 hPa 0,0 l/m 0 min 0 min 0,0 UV-I 0 W/m 0,0 km/h (0 Bft)
03.05.2013 02:20 11,8 C 10,1 C 81 % 1017,8 hPa 0,0 l/m 0 min 0 min 0,0 UV-I 0 W/m 0,0 km/h (0 Bft)
03.05.2013 02:22 11,7 C 10,1 C 81 % 1017,7 hPa 0,0 l/m 0 min 0 min 0,0 UV-I 0 W/m 0,0 km/h (0 Bft)
03.05.2013 02:24 11,7 C 10,1 C 81 % 1017,7 hPa 0,0 l/m 0 min 0 min 0,0 UV-I 0 W/m 0,0 km/h (0 Bft)
03.05.2013 02:26 11,7 C 10,1 C 81 % 1017,7 hPa 0,0 l/m 0 min 0 min 0,0 UV-I 0 W/m 0,0 km/h (0 Bft)
03.05.2013 02:28 11,7 C 10,1 C 81 % 1017,7 hPa 0,0 l/m 0 min 0 min 0,0 UV-I 0 W/m 0,0 km/h (0 Bft)
03.05.2013 02:30 11,7 C 10,1 C 81 % 1017,7 hPa 0,0 l/m 0 min 0 min 0,0 UV-I 0 W/m 0,0 km/h (0 Bft)
03.05.2013 02:32 11,6 C 9,6 C 81 % 1017,7 hPa 0,0 l/m 0 min 0 min 0,0 UV-I 0 W/m 0,0 km/h (0 Bft)
03.05.2013 02:34 11,6 C 9,6 C 82 % 1017,7 hPa 0,0 l/m 0 min 0 min 0,0 UV-I 0 W/m 0,0 km/h (0 Bft)
03.05.2013 02:36 11,6 C 9,6 C 82 % 1017,7 hPa 0,0 l/m 0 min 0 min 0,0 UV-I 0 W/m 0,0 km/h (0 Bft)
03.05.2013 02:38 11,5 C 9,6 C 82 % 1017,7 hPa 0,0 l/m 0 min 0 min 0,0 UV-I 0 W/m 0,0 km/h (0 Bft)
03.05.2013 02:40 11,4 C 9,6 C 82 % 1017,6 hPa 0,0 l/m 0 min 0 min 0,0 UV-I 0 W/m 0,0 km/h (0 Bft)
03.05.2013 02:42 11,4 C 9,6 C 83 % 1017,6 hPa 0,0 l/m 0 min 0 min 0,0 UV-I 0 W/m 0,0 km/h (0 Bft)
03.05.2013 02:44 11,4 C 9,6 C 82 % 1017,5 hPa 0,0 l/m 0 min 0 min 0,0 UV-I 0 W/m 0,0 km/h (0 Bft)
03.05.2013 02:46 11,3 C 9,6 C 83 % 1017,5 hPa 0,0 l/m 0 min 0 min 0,0 UV-I 0 W/m 0,0 km/h (0 Bft)
03.05.2013 02:48 11,3 C 9,6 C 83 % 1017,4 hPa 0,0 l/m 0 min 0 min 0,0 UV-I 0 W/m 0,0 km/h (0 Bft)
03.05.2013 02:50 11,3 C 9,6 C 83 % 1017,5 hPa 0,0 l/m 0 min 0 min 0,0 UV-I 0 W/m 0,0 km/h (0 Bft)
03.05.2013 02:52 11,2 C 9,6 C 83 % 1017,5 hPa 0,0 l/m 0 min 0 min 0,0 UV-I 0 W/m 0,0 km/h (0 Bft)
03.05.2013 02:54 11,2 C 9,0 C 83 % 1017,5 hPa 0,0 l/m 0 min 0 min 0,0 UV-I 0 W/m 0,0 km/h (0 Bft)
03.05.2013 02:56 11,2 C 9,0 C 83 % 1017,4 hPa 0,0 l/m 0 min 0 min 0,0 UV-I 0 W/m 0,0 km/h (0 Bft)
03.05.2013 02:58 11,1 C 9,0 C 83 % 1017,5 hPa 0,0 l/m 0 min 0 min 0,0 UV-I 0 W/m 0,0 km/h (0 Bft)
03.05.2013 03:00 11,1 C 9,6 C 84 % 1017,5 hPa 0,0 l/m 0 min 0 min 0,0 UV-I 0 W/m 7,7 km/h (2 Bft)
03.05.2013 03:02 11,1 C 9,6 C 84 % 1017,4 hPa 0,0 l/m 0 min 0 min 0,0 UV-I 0 W/m 0,0 km/h (0 Bft)
03.05.2013 03:05 11,0 C 9,6 C 84 % 1017,4 hPa 0,0 l/m 0 min 0 min 0,0 UV-I 0 W/m 0,0 km/h (0 Bft)
03.05.2013 03:06 11,0 C 9,6 C 84 % 1017,4 hPa 0,0 l/m 0 min 0 min 0,0 UV-I 0 W/m 0,0 km/h (0 Bft)
03.05.2013 03:08 10,9 C 9,6 C 85 % 1017,5 hPa 0,0 l/m 0 min 0 min 0,0 UV-I 0 W/m 0,0 km/h (0 Bft)
03.05.2013 03:10 10,9 C 9,6 C 85 % 1017,5 hPa 0,0 l/m 0 min 0 min 0,0 UV-I 0 W/m 0,0 km/h (0 Bft)
03.05.2013 03:12 10,9 C 9,0 C 85 % 1017,5 hPa 0,0 l/m 0 min 0 min 0,0 UV-I 0 W/m 0,0 km/h (0 Bft)
03.05.2013 03:14 10,8 C 9,0 C 85 % 1017,5 hPa 0,0 l/m 0 min 0 min 0,0 UV-I 0 W/m 0,0 km/h (0 Bft)
03.05.2013 03:16 10,8 C 9,0 C 85 % 1017,5 hPa 0,0 l/m 0 min 0 min 0,0 UV-I 0 W/m 0,0 km/h (0 Bft)
03.05.2013 03:18 10,8 C 9,0 C 85 % 1017,5 hPa 0,0 l/m 0 min 0 min 0,0 UV-I 0 W/m 0,0 km/h (0 Bft)
03.05.2013 03:20 10,8 C 9,0 C 85 % 1017,5 hPa 0,0 l/m 0 min 0 min 0,0 UV-I 0 W/m 0,0 km/h (0 Bft)
03.05.2013 03:22 10,7 C 9,0 C 85 % 1017,4 hPa 0,0 l/m 0 min 0 min 0,0 UV-I 0 W/m 0,0 km/h (0 Bft)
03.05.2013 03:24 10,7 C 9,0 C 85 % 1017,4 hPa 0,0 l/m 0 min 0 min 0,0 UV-I 0 W/m 0,0 km/h (0 Bft)
03.05.2013 03:26 10,7 C 9,0 C 85 % 1017,4 hPa 0,0 l/m 0 min 0 min 0,0 UV-I 0 W/m 0,0 km/h (0 Bft)
03.05.2013 03:28 10,6 C 9,0 C 85 % 1017,4 hPa 0,0 l/m 0 min 0 min 0,0 UV-I 0 W/m 0,0 km/h (0 Bft)
03.05.2013 03:30 10,6 C 9,0 C 85 % 1017,4 hPa 0,0 l/m 0 min 0 min 0,0 UV-I 0 W/m 0,0 km/h (0 Bft)
03.05.2013 03:32 10,6 C 8,4 C 86 % 1017,4 hPa 0,0 l/m 0 min 0 min 0,0 UV-I 0 W/m 0,0 km/h (0 Bft)
03.05.2013 03:34 10,5 C 9,0 C 86 % 1017,3 hPa 0,0 l/m 0 min 0 min 0,0 UV-I 0 W/m 0,0 km/h (0 Bft)
03.05.2013 03:36 10,4 C 8,4 C 86 % 1017,4 hPa 0,0 l/m 0 min 0 min 0,0 UV-I 0 W/m 0,0 km/h (0 Bft)
03.05.2013 03:38 10,4 C 8,4 C 86 % 1017,3 hPa 0,0 l/m 0 min 0 min 0,0 UV-I 0 W/m 0,0 km/h (0 Bft)
03.05.2013 03:40 10,4 C 8,4 C 86 % 1017,3 hPa 0,0 l/m 0 min 0 min 0,0 UV-I 0 W/m 0,0 km/h (0 Bft)
03.05.2013 03:42 10,4 C 8,4 C 86 % 1017,3 hPa 0,0 l/m 0 min 0 min 0,0 UV-I 0 W/m 0,0 km/h (0 Bft)
03.05.2013 03:44 10,3 C 8,4 C 86 % 1017,3 hPa 0,0 l/m 0 min 0 min 0,0 UV-I 0 W/m 0,0 km/h (0 Bft)
03.05.2013 03:46 10,3 C 8,4 C 86 % 1017,4 hPa 0,0 l/m 0 min 0 min 0,0 UV-I 0 W/m 0,0 km/h (0 Bft)
03.05.2013 03:48 10,3 C 8,4 C 86 % 1017,4 hPa 0,0 l/m 0 min 0 min 0,0 UV-I 0 W/m 0,0 km/h (0 Bft)
03.05.2013 03:50 10,2 C 8,4 C 86 % 1017,4 hPa 0,0 l/m 0 min 0 min 0,0 UV-I 0 W/m 0,0 km/h (0 Bft)
03.05.2013 03:52 10,2 C 8,4 C 87 % 1017,4 hPa 0,0 l/m 0 min 0 min 0,0 UV-I 0 W/m 0,0 km/h (0 Bft)
03.05.2013 03:54 10,2 C 8,4 C 87 % 1017,4 hPa 0,0 l/m 0 min 0 min 0,0 UV-I 0 W/m 0,0 km/h (0 Bft)
03.05.2013 03:56 10,1 C 8,4 C 87 % 1017,4 hPa 0,0 l/m 0 min 0 min 0,0 UV-I 0 W/m 0,0 km/h (0 Bft)
03.05.2013 03:58 10,1 C 8,4 C 87 % 1017,4 hPa 0,0 l/m 0 min 0 min 0,0 UV-I 0 W/m 0,0 km/h (0 Bft)
03.05.2013 04:00 10,1 C 8,4 C 87 % 1017,4 hPa 0,0 l/m 0 min 0 min 0,0 UV-I 0 W/m 0,0 km/h (0 Bft)
03.05.2013 04:02 10,0 C 8,4 C 87 % 1017,4 hPa 0,0 l/m 0 min 0 min 0,0 UV-I 0 W/m 0,0 km/h (0 Bft)
03.05.2013 04:04 10,0 C 8,4 C 87 % 1017,4 hPa 0,0 l/m 0 min 0 min 0,0 UV-I 0 W/m 0,0 km/h (0 Bft)
03.05.2013 04:06 10,0 C 7,9 C 87 % 1017,3 hPa 0,0 l/m 0 min 0 min 0,0 UV-I 0 W/m 0,0 km/h (0 Bft)
03.05.2013 04:08 9,9 C 7,9 C 87 % 1017,3 hPa 0,0 l/m 0 min 0 min 0,0 UV-I 0 W/m 0,0 km/h (0 Bft)
03.05.2013 04:10 9,9 C 8,4 C 87 % 1017,3 hPa 0,0 l/m 0 min 0 min 0,0 UV-I 0 W/m 0,0 km/h (0 Bft)
03.05.2013 04:12 9,9 C 8,4 C 88 % 1017,2 hPa 0,0 l/m 0 min 0 min 0,0 UV-I 0 W/m 0,0 km/h (0 Bft)
03.05.2013 04:14 9,9 C 8,4 C 88 % 1017,2 hPa 0,0 l/m 0 min 0 min 0,0 UV-I 0 W/m 0,0 km/h (0 Bft)
03.05.2013 04:16 9,8 C 8,4 C 88 % 1017,2 hPa 0,0 l/m 0 min 0 min 0,0 UV-I 0 W/m 0,0 km/h (0 Bft)
03.05.2013 04:18 9,8 C 8,4 C 88 % 1017,2 hPa 0,0 l/m 0 min 0 min 0,0 UV-I 0 W/m 0,0 km/h (0 Bft)
03.05.2013 04:20 9,8 C 8,4 C 88 % 1017,2 hPa 0,0 l/m 0 min 0 min 0,0 UV-I 0 W/m 0,0 km/h (0 Bft)
03.05.2013 04:22 9,8 C 8,4 C 88 % 1017,1 hPa 0,0 l/m 0 min 0 min 0,0 UV-I 0 W/m 0,0 km/h (0 Bft)
03.05.2013 04:24 9,8 C 8,4 C 88 % 1017,1 hPa 0,0 l/m 0 min 0 min 0,0 UV-I 0 W/m 0,0 km/h (0 Bft)
03.05.2013 04:26 9,7 C 8,4 C 88 % 1017,1 hPa 0,0 l/m 0 min 0 min 0,0 UV-I 0 W/m 0,0 km/h (0 Bft)
03.05.2013 04:28 9,7 C 7,9 C 88 % 1017,0 hPa 0,0 l/m 0 min 0 min 0,0 UV-I 0 W/m 0,0 km/h (0 Bft)
03.05.2013 04:30 9,7 C 7,9 C 89 % 1017,0 hPa 0,0 l/m 0 min 0 min 0,0 UV-I 0 W/m 0,0 km/h (0 Bft)
03.05.2013 04:32 9,7 C 7,9 C 89 % 1017,0 hPa 0,0 l/m 0 min 0 min 0,0 UV-I 0 W/m 0,0 km/h (0 Bft)
03.05.2013 04:34 9,6 C 7,9 C 89 % 1016,9 hPa 0,0 l/m 0 min 0 min 0,0 UV-I 0 W/m 0,0 km/h (0 Bft)
03.05.2013 04:36 9,6 C 7,9 C 89 % 1016,9 hPa 0,0 l/m 0 min 0 min 0,0 UV-I 0 W/m 0,0 km/h (0 Bft)
03.05.2013 04:38 9,6 C 7,9 C 89 % 1017,0 hPa 0,0 l/m 0 min 0 min 0,0 UV-I 0 W/m 0,0 km/h (0 Bft)
03.05.2013 04:40 9,5 C 7,9 C 89 % 1017,0 hPa 0,0 l/m 0 min 0 min 0,0 UV-I 0 W/m 0,0 km/h (0 Bft)
03.05.2013 04:42 9,5 C 7,9 C 89 % 1017,0 hPa 0,0 l/m 0 min 0 min 0,0 UV-I 0 W/m 0,0 km/h (0 Bft)
03.05.2013 04:44 9,4 C 7,9 C 89 % 1017,0 hPa 0,0 l/m 0 min 0 min 0,0 UV-I 0 W/m 0,0 km/h (0 Bft)
03.05.2013 04:46 9,4 C 7,9 C 89 % 1016,9 hPa 0,0 l/m 0 min 0 min 0,0 UV-I 0 W/m 0,0 km/h (0 Bft)
03.05.2013 04:48 9,4 C 7,9 C 89 % 1016,9 hPa 0,0 l/m 0 min 0 min 0,0 UV-I 0 W/m 0,0 km/h (0 Bft)
03.05.2013 04:50 9,4 C 7,3 C 89 % 1017,0 hPa 0,0 l/m 0 min 0 min 0,0 UV-I 0 W/m 0,0 km/h (0 Bft)
03.05.2013 04:52 9,3 C 7,3 C 89 % 1017,0 hPa 0,0 l/m 0 min 0 min 0,0 UV-I 0 W/m 0,0 km/h (0 Bft)
03.05.2013 04:54 9,3 C 7,9 C 89 % 1017,0 hPa 0,0 l/m 0 min 0 min 0,0 UV-I 0 W/m 0,0 km/h (0 Bft)
03.05.2013 04:56 9,3 C 7,3 C 89 % 1017,0 hPa 0,0 l/m 0 min 0 min 0,0 UV-I 0 W/m 0,0 km/h (0 Bft)
03.05.2013 04:58 9,3 C 7,3 C 89 % 1017,0 hPa 0,0 l/m 0 min 0 min 0,0 UV-I 0 W/m 0,0 km/h (0 Bft)
03.05.2013 05:00 9,3 C 7,3 C 89 % 1017,0 hPa 0,0 l/m 0 min 0 min 0,0 UV-I 0 W/m 0,0 km/h (0 Bft)
03.05.2013 05:02 9,2 C 7,3 C 89 % 1017,0 hPa 0,0 l/m 0 min 0 min 0,0 UV-I 0 W/m 0,0 km/h (0 Bft)
03.05.2013 05:04 9,2 C 7,3 C 89 % 1017,0 hPa 0,0 l/m 0 min 0 min 0,0 UV-I 0 W/m 0,0 km/h (0 Bft)
03.05.2013 05:06 9,2 C 7,3 C 90 % 1016,9 hPa 0,0 l/m 0 min 0 min 0,0 UV-I 0 W/m 0,0 km/h (0 Bft)
03.05.2013 05:08 9,2 C 6,8 C 90 % 1016,9 hPa 0,0 l/m 0 min 0 min 0,0 UV-I 0 W/m 0,0 km/h (0 Bft)
03.05.2013 05:10 9,1 C 6,8 C 90 % 1017,0 hPa 0,0 l/m 0 min 0 min 0,0 UV-I 0 W/m 0,0 km/h (0 Bft)
03.05.2013 05:12 9,1 C 6,8 C 90 % 1016,9 hPa 0,0 l/m 0 min 0 min 0,0 UV-I 0 W/m 0,0 km/h (0 Bft)
03.05.2013 05:14 9,1 C 6,8 C 90 % 1016,9 hPa 0,0 l/m 0 min 0 min 0,0 UV-I 0 W/m 0,0 km/h (0 Bft)
03.05.2013 05:16 9,1 C 6,8 C 90 % 1017,0 hPa 0,0 l/m 0 min 0 min 0,0 UV-I 0 W/m 0,0 km/h (0 Bft)
03.05.2013 05:18 9,0 C 6,8 C 90 % 1016,9 hPa 0,0 l/m 0 min 0 min 0,0 UV-I 0 W/m 0,0 km/h (0 Bft)
03.05.2013 05:20 8,9 C 6,8 C 90 % 1017,0 hPa 0,0 l/m 0 min 0 min 0,0 UV-I 0 W/m 0,0 km/h (0 Bft)
03.05.2013 05:22 8,9 C 6,8 C 90 % 1016,9 hPa 0,0 l/m 0 min 0 min 0,0 UV-I 0 W/m 0,0 km/h (0 Bft)
03.05.2013 05:24 8,9 C 6,8 C 90 % 1016,9 hPa 0,0 l/m 0 min 0 min 0,0 UV-I 0 W/m 0,0 km/h (0 Bft)
03.05.2013 05:26 8,9 C 6,8 C 90 % 1016,9 hPa 0,0 l/m 0 min 0 min 0,0 UV-I 0 W/m 0,0 km/h (0 Bft)
03.05.2013 05:28 8,9 C 6,8 C 90 % 1017,0 hPa 0,0 l/m 0 min 0 min 0,0 UV-I 0 W/m 0,0 km/h (0 Bft)
03.05.2013 05:30 8,8 C 6,8 C 90 % 1017,1 hPa 0,0 l/m 0 min 0 min 0,0 UV-I 0 W/m 0,0 km/h (0 Bft)
03.05.2013 05:32 8,8 C 6,8 C 90 % 1017,0 hPa 0,0 l/m 0 min 0 min 0,0 UV-I 0 W/m 0,0 km/h (0 Bft)
03.05.2013 05:34 8,8 C 6,8 C 90 % 1017,0 hPa 0,0 l/m 0 min 0 min 0,0 UV-I 0 W/m 0,0 km/h (0 Bft)
03.05.2013 05:36 8,8 C 6,8 C 90 % 1017,0 hPa 0,0 l/m 0 min 0 min 0,0 UV-I 0 W/m 0,0 km/h (0 Bft)
03.05.2013 05:38 8,7 C 6,8 C 90 % 1017,0 hPa 0,0 l/m 0 min 0 min 0,0 UV-I 0 W/m 0,0 km/h (0 Bft)
03.05.2013 05:40 8,7 C 6,8 C 90 % 1017,1 hPa 0,0 l/m 0 min 0 min 0,0 UV-I 0 W/m 0,0 km/h (0 Bft)
03.05.2013 05:42 8,7 C 6,8 C 90 % 1017,1 hPa 0,0 l/m 0 min 0 min 0,0 UV-I 0 W/m 0,0 km/h (0 Bft)
03.05.2013 05:44 8,7 C 6,8 C 90 % 1017,0 hPa 0,0 l/m 0 min 0 min 0,0 UV-I 0 W/m 0,0 km/h (0 Bft)
03.05.2013 05:46 8,6 C 6,2 C 90 % 1017,0 hPa 0,0 l/m 0 min 0 min 0,0 UV-I 0 W/m 0,0 km/h (0 Bft)
03.05.2013 05:48 8,6 C 6,2 C 90 % 1017,0 hPa 0,0 l/m 0 min 0 min 0,0 UV-I 0 W/m 0,0 km/h (0 Bft)
03.05.2013 05:50 8,6 C 6,2 C 90 % 1017,0 hPa 0,0 l/m 0 min 0 min 0,0 UV-I 0 W/m 0,0 km/h (0 Bft)
03.05.2013 05:52 8,6 C 6,2 C 90 % 1017,0 hPa 0,0 l/m 0 min 0 min 0,0 UV-I 0 W/m 0,0 km/h (0 Bft)
03.05.2013 05:54 8,5 C 6,2 C 90 % 1017,1 hPa 0,0 l/m 0 min 0 min 0,0 UV-I 0 W/m 0,0 km/h (0 Bft)
03.05.2013 05:56 8,4 C 6,2 C 90 % 1017,0 hPa 0,0 l/m 0 min 0 min 0,0 UV-I 0 W/m 0,0 km/h (0 Bft)
03.05.2013 05:58 8,4 C 6,2 C 90 % 1016,9 hPa 0,0 l/m 0 min 0 min 0,0 UV-I 0 W/m 0,0 km/h (0 Bft)
03.05.2013 06:00 8,4 C 6,2 C 90 % 1017,0 hPa 0,0 l/m 0 min 0 min 0,0 UV-I 0 W/m 0,0 km/h (0 Bft)
03.05.2013 06:02 8,4 C 6,2 C 90 % 1017,0 hPa 0,0 l/m 0 min 0 min 0,0 UV-I 0 W/m 0,0 km/h (0 Bft)
03.05.2013 06:04 8,3 C 6,2 C 90 % 1017,0 hPa 0,0 l/m 0 min 0 min 0,0 UV-I 0 W/m 0,0 km/h (0 Bft)
03.05.2013 06:06 8,3 C 6,2 C 90 % 1017,0 hPa 0,0 l/m 0 min 0 min 0,0 UV-I 5 W/m 0,0 km/h (0 Bft)
03.05.2013 06:08 8,3 C 6,2 C 90 % 1017,0 hPa 0,0 l/m 0 min 0 min 0,0 UV-I 5 W/m 0,0 km/h (0 Bft)
03.05.2013 06:10 8,3 C 6,2 C 90 % 1017,0 hPa 0,0 l/m 0 min 0 min 0,0 UV-I 5 W/m 0,0 km/h (0 Bft)
03.05.2013 06:12 8,2 C 6,2 C 90 % 1017,0 hPa 0,0 l/m 0 min 0 min 0,0 UV-I 7 W/m 0,0 km/h (0 Bft)
03.05.2013 06:14 8,2 C 6,8 C 90 % 1017,0 hPa 0,0 l/m 0 min 0 min 0,0 UV-I 7 W/m 0,0 km/h (0 Bft)
03.05.2013 06:16 8,2 C 6,8 C 90 % 1017,1 hPa 0,0 l/m 0 min 0 min 0,0 UV-I 9 W/m 0,0 km/h (0 Bft)
03.05.2013 06:18 8,1 C 6,8 C 90 % 1017,0 hPa 0,0 l/m 0 min 0 min 0,0 UV-I 11 W/m 0,0 km/h (0 Bft)
03.05.2013 06:20 8,1 C 6,2 C 91 % 1017,0 hPa 0,0 l/m 0 min 0 min 0,0 UV-I 12 W/m 0,0 km/h (0 Bft)
03.05.2013 06:22 8,1 C 6,2 C 91 % 1017,0 hPa 0,0 l/m 0 min 0 min 0,0 UV-I 14 W/m 0,0 km/h (0 Bft)
03.05.2013 06:24 8,1 C 6,2 C 91 % 1017,0 hPa 0,0 l/m 0 min 0 min 0,0 UV-I 16 W/m 0,0 km/h (0 Bft)
03.05.2013 06:26 8,1 C 6,2 C 91 % 1017,0 hPa 0,0 l/m 0 min 0 min 0,0 UV-I 18 W/m 0,0 km/h (0 Bft)
03.05.2013 06:28 8,0 C 6,2 C 91 % 1017,0 hPa 0,0 l/m 0 min 0 min 0,0 UV-I 18 W/m 0,0 km/h (0 Bft)
03.05.2013 06:30 8,0 C 6,2 C 91 % 1017,0 hPa 0,0 l/m 0 min 0 min 0,0 UV-I 18 W/m 0,0 km/h (0 Bft)
03.05.2013 06:32 8,0 C 6,2 C 91 % 1017,1 hPa 0,0 l/m 0 min 0 min 0,0 UV-I 18 W/m 0,0 km/h (0 Bft)
03.05.2013 06:34 7,9 C 6,2 C 91 % 1017,0 hPa 0,0 l/m 0 min 0 min 0,0 UV-I 19 W/m 0,0 km/h (0 Bft)
03.05.2013 06:36 7,9 C 6,2 C 91 % 1017,0 hPa 0,0 l/m 0 min 0 min 0,0 UV-I 19 W/m 0,0 km/h (0 Bft)
03.05.2013 06:38 7,9 C 6,2 C 91 % 1017,1 hPa 0,0 l/m 0 min 0 min 0,0 UV-I 19 W/m 0,0 km/h (0 Bft)
03.05.2013 06:40 7,9 C 6,2 C 91 % 1017,1 hPa 0,0 l/m 0 min 0 min 0,0 UV-I 19 W/m 0,0 km/h (0 Bft)
03.05.2013 06:42 7,9 C 6,2 C 91 % 1017,1 hPa 0,0 l/m 0 min 0 min 0,0 UV-I 21 W/m 0,0 km/h (0 Bft)
03.05.2013 06:44 7,9 C 6,2 C 91 % 1017,1 hPa 0,0 l/m 0 min 0 min 0,0 UV-I 23 W/m 0,0 km/h (0 Bft)
03.05.2013 06:46 7,9 C 6,8 C 91 % 1017,1 hPa 0,0 l/m 0 min 0 min 0,0 UV-I 25 W/m 0,0 km/h (0 Bft)
03.05.2013 06:48 7,8 C 6,8 C 91 % 1017,1 hPa 0,0 l/m 0 min 0 min 0,0 UV-I 26 W/m 0,0 km/h (0 Bft)
03.05.2013 06:50 7,8 C 6,8 C 91 % 1017,2 hPa 0,0 l/m 0 min 0 min 0,0 UV-I 26 W/m 0,0 km/h (0 Bft)
03.05.2013 06:52 7,8 C 6,8 C 91 % 1017,2 hPa 0,0 l/m 0 min 0 min 0,0 UV-I 28 W/m 0,0 km/h (0 Bft)
03.05.2013 06:54 7,8 C 6,8 C 91 % 1017,2 hPa 0,0 l/m 0 min 0 min 0,0 UV-I 32 W/m 0,0 km/h (0 Bft)
03.05.2013 06:56 7,8 C 6,8 C 92 % 1017,1 hPa 0,0 l/m 0 min 0 min 0,0 UV-I 33 W/m 0,0 km/h (0 Bft)
03.05.2013 06:58 7,8 C 6,8 C 92 % 1017,1 hPa 0,0 l/m 0 min 0 min 0,0 UV-I 37 W/m 0,0 km/h (0 Bft)
03.05.2013 07:00 7,8 C 6,8 C 91 % 1017,2 hPa 0,0 l/m 0 min 0 min 0,0 UV-I 37 W/m 0,0 km/h (0 Bft)
03.05.2013 07:02 7,8 C 6,8 C 92 % 1017,2 hPa 0,0 l/m 0 min 0 min 0,0 UV-I 39 W/m 0,0 km/h (0 Bft)
03.05.2013 07:04 7,8 C 6,8 C 92 % 1017,2 hPa 0,0 l/m 0 min 0 min 0,0 UV-I 39 W/m 0,0 km/h (0 Bft)
03.05.2013 07:06 7,8 C 6,8 C 92 % 1017,2 hPa 0,0 l/m 0 min 0 min 0,0 UV-I 40 W/m 0,0 km/h (0 Bft)
03.05.2013 07:08 7,8 C 6,8 C 92 % 1017,2 hPa 0,0 l/m 0 min 0 min 0,0 UV-I 42 W/m 0,0 km/h (0 Bft)
03.05.2013 07:10 7,8 C 6,8 C 92 % 1017,1 hPa 0,0 l/m 0 min 0 min 0,0 UV-I 44 W/m 0,0 km/h (0 Bft)
03.05.2013 07:12 7,8 C 6,8 C 92 % 1017,1 hPa 0,0 l/m 0 min 0 min 0,0 UV-I 46 W/m 0,0 km/h (0 Bft)
03.05.2013 07:14 7,8 C 6,8 C 92 % 1017,1 hPa 0,0 l/m 0 min 0 min 0,0 UV-I 49 W/m 0,0 km/h (0 Bft)
03.05.2013 07:16 7,8 C 7,3 C 92 % 1017,2 hPa 0,0 l/m 0 min 0 min 0,0 UV-I 54 W/m 0,0 km/h (0 Bft)
03.05.2013 07:18 7,8 C 7,3 C 92 % 1017,3 hPa 0,0 l/m 0 min 0 min 0,0 UV-I 60 W/m 0,0 km/h (0 Bft)
03.05.2013 07:20 7,8 C 7,3 C 92 % 1017,2 hPa 0,0 l/m 0 min 0 min 0,0 UV-I 65 W/m 0,0 km/h (0 Bft)
03.05.2013 07:22 7,8 C 7,3 C 92 % 1017,2 hPa 0,0 l/m 0 min 0 min 0,0 UV-I 69 W/m 0,0 km/h (0 Bft)
03.05.2013 07:24 7,9 C 7,9 C 92 % 1017,2 hPa 0,0 l/m 0 min 0 min 0,0 UV-I 72 W/m 0,0 km/h (0 Bft)
03.05.2013 07:26 7,9 C 7,9 C 92 % 1017,2 hPa 0,0 l/m 0 min 0 min 0,0 UV-I 81 W/m 0,0 km/h (0 Bft)
03.05.2013 07:28 7,9 C 7,9 C 93 % 1017,2 hPa 0,0 l/m 0 min 0 min 0,0 UV-I 84 W/m 0,0 km/h (0 Bft)
03.05.2013 07:30 8,0 C 8,4 C 93 % 1017,3 hPa 0,0 l/m 0 min 0 min 0,0 UV-I 93 W/m 0,0 km/h (0 Bft)
03.05.2013 07:32 8,1 C 8,4 C 93 % 1017,2 hPa 0,0 l/m 0 min 0 min 0,0 UV-I 104 W/m 0,0 km/h (0 Bft)
03.05.2013 07:34 8,1 C 8,4 C 93 % 1017,3 hPa 0,0 l/m 0 min 0 min 0,0 UV-I 104 W/m 0,0 km/h (0 Bft)
03.05.2013 07:36 8,2 C 8,4 C 93 % 1017,2 hPa 0,0 l/m 0 min 0 min 0,0 UV-I 104 W/m 0,0 km/h (0 Bft)
03.05.2013 07:38 8,2 C 8,4 C 93 % 1017,2 hPa 0,0 l/m 0 min 0 min 0,0 UV-I 97 W/m 0,0 km/h (0 Bft)
03.05.2013 07:40 8,3 C 8,4 C 94 % 1017,2 hPa 0,0 l/m 0 min 0 min 0,0 UV-I 97 W/m 0,0 km/h (0 Bft)
03.05.2013 07:42 8,3 C 9,0 C 94 % 1017,1 hPa 0,0 l/m 0 min 0 min 0,0 UV-I 98 W/m 0,0 km/h (0 Bft)
03.05.2013 07:44 8,4 C 9,0 C 94 % 1017,2 hPa 0,0 l/m 0 min 0 min 0,0 UV-I 102 W/m 0,0 km/h (0 Bft)
03.05.2013 07:46 8,4 C 9,0 C 94 % 1017,1 hPa 0,0 l/m 0 min 0 min 0,0 UV-I 105 W/m 0,0 km/h (0 Bft)
03.05.2013 07:48 8,5 C 9,0 C 94 % 1017,2 hPa 0,0 l/m 0 min 0 min 0,0 UV-I 107 W/m 0,0 km/h (0 Bft)
03.05.2013 07:50 8,6 C 9,0 C 94 % 1017,2 hPa 0,0 l/m 0 min 0 min 0,0 UV-I 107 W/m 0,0 km/h (0 Bft)
03.05.2013 07:52 8,6 C 9,6 C 94 % 1017,2 hPa 0,0 l/m 0 min 0 min 0,0 UV-I 107 W/m 0,0 km/h (0 Bft)
03.05.2013 07:54 8,7 C 9,6 C 94 % 1017,2 hPa 0,0 l/m 0 min 0 min 0,0 UV-I 107 W/m 0,0 km/h (0 Bft)
03.05.2013 07:56 8,7 C 9,6 C 94 % 1017,2 hPa 0,0 l/m 0 min 0 min 0,0 UV-I 113 W/m 0,0 km/h (0 Bft)
03.05.2013 07:58 8,8 C 9,6 C 94 % 1017,2 hPa 0,0 l/m 0 min 0 min 0,0 UV-I 109 W/m 0,0 km/h (0 Bft)
03.05.2013 08:00 8,9 C 9,6 C 94 % 1017,2 hPa 0,0 l/m 0 min 0 min 0,0 UV-I 109 W/m 2,6 km/h (1 Bft)
03.05.2013 08:02 8,9 C 9,6 C 95 % 1017,2 hPa 0,0 l/m 0 min 0 min 0,0 UV-I 111 W/m 0,0 km/h (0 Bft)
03.05.2013 08:04 9,1 C 10,1 C 95 % 1017,2 hPa 0,0 l/m 0 min 0 min 0,0 UV-I 111 W/m 5,1 km/h (1 Bft)
03.05.2013 08:06 9,2 C 10,1 C 95 % 1017,2 hPa 0,0 l/m 0 min 0 min 0,0 UV-I 113 W/m 7,7 km/h (2 Bft)
03.05.2013 08:08 9,3 C 10,1 C 95 % 1017,3 hPa 0,0 l/m 0 min 0 min 0,0 UV-I 118 W/m 0,0 km/h (0 Bft)
03.05.2013 08:10 9,3 C 10,1 C 95 % 1017,3 hPa 0,0 l/m 0 min 0 min 0,0 UV-I 120 W/m 0,0 km/h (0 Bft)
03.05.2013 08:12 9,4 C 10,1 C 95 % 1017,3 hPa 0,0 l/m 0 min 0 min 0,0 UV-I 123 W/m 2,6 km/h (1 Bft)
03.05.2013 08:14 9,5 C 10,1 C 94 % 1017,2 hPa 0,0 l/m 0 min 0 min 0,0 UV-I 155 W/m 0,0 km/h (0 Bft)
03.05.2013 08:16 9,5 C 10,1 C 94 % 1017,3 hPa 0,0 l/m 0 min 0 min 0,0 UV-I 162 W/m 0,0 km/h (0 Bft)
03.05.2013 08:18 9,6 C 10,1 C 95 % 1017,3 hPa 0,0 l/m 0 min 0 min 0,0 UV-I 171 W/m 0,0 km/h (0 Bft)
03.05.2013 08:20 9,7 C 10,7 C 94 % 1017,3 hPa 0,0 l/m 0 min 0 min 0,0 UV-I 172 W/m 0,0 km/h (0 Bft)
03.05.2013 08:22 9,7 C 10,7 C 94 % 1017,3 hPa 0,0 l/m 0 min 0 min 0,0 UV-I 179 W/m 0,0 km/h (0 Bft)
03.05.2013 08:24 9,8 C 10,7 C 94 % 1017,3 hPa 0,0 l/m 2 min 0 min 0,0 UV-I 202 W/m 0,0 km/h (0 Bft)
03.05.2013 08:26 9,8 C 10,7 C 94 % 1017,3 hPa 0,0 l/m 2 min 0 min 0,0 UV-I 200 W/m 0,0 km/h (0 Bft)
03.05.2013 08:28 9,9 C 10,7 C 94 % 1017,3 hPa 0,0 l/m 0 min 0 min 0,0 UV-I 195 W/m 0,0 km/h (0 Bft)
03.05.2013 08:30 10,0 C 10,7 C 94 % 1017,3 hPa 0,0 l/m 2 min 0 min 0,0 UV-I 211 W/m 2,6 km/h (1 Bft)
03.05.2013 08:32 10,1 C 10,7 C 94 % 1017,3 hPa 0,0 l/m 2 min 0 min 0,0 UV-I 229 W/m 2,6 km/h (1 Bft)
03.05.2013 08:34 10,1 C 10,7 C 94 % 1017,3 hPa 0,0 l/m 2 min 0 min 0,0 UV-I 221 W/m 2,6 km/h (1 Bft)
03.05.2013 08:36 10,2 C 10,7 C 94 % 1017,2 hPa 0,0 l/m 2 min 0 min 0,0 UV-I 220 W/m 0,0 km/h (0 Bft)
03.05.2013 08:38 10,2 C 10,7 C 93 % 1017,2 hPa 0,0 l/m 0 min 0 min 0,0 UV-I 207 W/m 0,0 km/h (0 Bft)
03.05.2013 08:40 10,3 C 10,7 C 93 % 1017,3 hPa 0,0 l/m 0 min 0 min 0,0 UV-I 204 W/m 0,0 km/h (0 Bft)
03.05.2013 08:42 10,4 C 11,2 C 93 % 1017,3 hPa 0,0 l/m 0 min 0 min 0,0 UV-I 195 W/m 0,0 km/h (0 Bft)
03.05.2013 08:44 10,4 C 11,2 C 93 % 1017,3 hPa 0,0 l/m 0 min 0 min 0,0 UV-I 207 W/m 0,0 km/h (0 Bft)
03.05.2013 08:46 10,5 C 10,7 C 93 % 1017,3 hPa 0,0 l/m 2 min 0 min 0,0 UV-I 227 W/m 0,0 km/h (0 Bft)
03.05.2013 08:48 10,6 C 10,7 C 92 % 1017,2 hPa 0,0 l/m 2 min 0 min 0,0 UV-I 251 W/m 0,0 km/h (0 Bft)
03.05.2013 08:50 10,6 C 11,2 C 92 % 1017,2 hPa 0,0 l/m 2 min 0 min 0,0 UV-I 267 W/m 0,0 km/h (0 Bft)
03.05.2013 08:52 10,7 C 11,2 C 92 % 1017,2 hPa 0,0 l/m 2 min 0 min 0,0 UV-I 292 W/m 0,0 km/h (0 Bft)
03.05.2013 08:54 10,8 C 11,2 C 92 % 1017,2 hPa 0,0 l/m 2 min 0 min 0,0 UV-I 295 W/m 0,0 km/h (0 Bft)
03.05.2013 08:56 10,8 C 11,2 C 91 % 1017,2 hPa 0,0 l/m 2 min 0 min 0,0 UV-I 294 W/m 2,6 km/h (1 Bft)
03.05.2013 08:58 10,9 C 11,8 C 91 % 1017,2 hPa 0,0 l/m 2 min 0 min 0,0 UV-I 288 W/m 0,0 km/h (0 Bft)
03.05.2013 09:00 11,1 C 11,8 C 91 % 1017,2 hPa 0,0 l/m 2 min 0 min 0,0 UV-I 281 W/m 0,0 km/h (0 Bft)
03.05.2013 09:02 11,2 C 11,8 C 91 % 1017,2 hPa 0,0 l/m 2 min 0 min 0,0 UV-I 301 W/m 0,0 km/h (0 Bft)
03.05.2013 09:04 11,2 C 11,8 C 90 % 1017,2 hPa 0,0 l/m 2 min 0 min 0,0 UV-I 299 W/m 2,6 km/h (1 Bft)
03.05.2013 09:06 11,3 C 11,8 C 90 % 1017,1 hPa 0,0 l/m 2 min 0 min 0,0 UV-I 315 W/m 0,0 km/h (0 Bft)
03.05.2013 09:08 11,4 C 11,8 C 90 % 1017,2 hPa 0,0 l/m 2 min 0 min 0,0 UV-I 302 W/m 2,6 km/h (1 Bft)
03.05.2013 09:10 11,6 C 11,8 C 89 % 1017,2 hPa 0,0 l/m 2 min 0 min 0,0 UV-I 295 W/m 0,0 km/h (0 Bft)
03.05.2013 09:12 11,7 C 12,3 C 88 % 1017,2 hPa 0,0 l/m 2 min 0 min 0,0 UV-I 278 W/m 0,0 km/h (0 Bft)
03.05.2013 09:14 11,8 C 12,3 C 88 % 1017,2 hPa 0,0 l/m 2 min 0 min 0,0 UV-I 292 W/m 0,0 km/h (0 Bft)
03.05.2013 09:16 11,9 C 12,3 C 88 % 1017,2 hPa 0,0 l/m 2 min 0 min 0,0 UV-I 279 W/m 0,0 km/h (0 Bft)
03.05.2013 09:18 11,9 C 12,9 C 87 % 1017,2 hPa 0,0 l/m 2 min 0 min 0,0 UV-I 304 W/m 0,0 km/h (0 Bft)
03.05.2013 09:20 12,1 C 12,9 C 87 % 1017,3 hPa 0,0 l/m 2 min 0 min 0,0 UV-I 318 W/m 0,0 km/h (0 Bft)
03.05.2013 09:22 12,2 C 12,9 C 86 % 1017,2 hPa 0,0 l/m 2 min 0 min 0,0 UV-I 334 W/m 2,6 km/h (1 Bft)
03.05.2013 09:24 12,2 C 13,4 C 86 % 1017,2 hPa 0,0 l/m 2 min 0 min 0,0 UV-I 355 W/m 0,0 km/h (0 Bft)
03.05.2013 09:26 12,3 C 13,4 C 86 % 1017,2 hPa 0,0 l/m 2 min 0 min 0,0 UV-I 360 W/m 0,0 km/h (0 Bft)
03.05.2013 09:28 12,5 C 13,4 C 85 % 1017,3 hPa 0,0 l/m 2 min 0 min 0,0 UV-I 359 W/m 0,0 km/h (0 Bft)
03.05.2013 09:30 12,6 C 13,4 C 85 % 1017,3 hPa 0,0 l/m 2 min 0 min 0,0 UV-I 357 W/m 0,0 km/h (0 Bft)
03.05.2013 09:32 12,7 C 14,0 C 85 % 1017,3 hPa 0,0 l/m 2 min 0 min 0,0 UV-I 355 W/m 2,6 km/h (1 Bft)
03.05.2013 09:34 12,8 C 14,0 C 84 % 1017,3 hPa 0,0 l/m 2 min 0 min 0,0 UV-I 362 W/m 2,6 km/h (1 Bft)
03.05.2013 09:36 12,9 C 14,6 C 83 % 1017,2 hPa 0,0 l/m 2 min 0 min 0,0 UV-I 378 W/m 0,0 km/h (0 Bft)
03.05.2013 09:38 12,9 C 15,1 C 83 % 1017,2 hPa 0,0 l/m 2 min 0 min 0,5 UV-I 392 W/m 2,6 km/h (1 Bft)
03.05.2013 09:40 13,0 C 15,7 C 83 % 1017,2 hPa 0,0 l/m 2 min 0 min 0,5 UV-I 396 W/m 0,0 km/h (0 Bft)
03.05.2013 09:42 13,2 C 16,8 C 83 % 1017,3 hPa 0,0 l/m 2 min 0 min 0,5 UV-I 403 W/m 0,0 km/h (0 Bft)
03.05.2013 09:44 13,3 C 16,8 C 82 % 1017,2 hPa 0,0 l/m 2 min 0 min 0,5 UV-I 394 W/m 10,3 km/h (2 Bft)
03.05.2013 09:46 13,4 C 16,2 C 81 % 1017,2 hPa 0,0 l/m 2 min 0 min 0,6 UV-I 381 W/m 2,6 km/h (1 Bft)
03.05.2013 09:48 13,6 C 16,8 C 81 % 1017,1 hPa 0,0 l/m 2 min 0 min 0,6 UV-I 381 W/m 0,0 km/h (0 Bft)
03.05.2013 09:50 13,7 C 16,8 C 80 % 1017,1 hPa 0,0 l/m 2 min 0 min 0,6 UV-I 388 W/m 2,6 km/h (1 Bft)
03.05.2013 09:52 13,7 C 16,8 C 80 % 1017,1 hPa 0,0 l/m 2 min 0 min 0,6 UV-I 355 W/m 2,6 km/h (1 Bft)
03.05.2013 09:54 13,8 C 16,8 C 79 % 1017,2 hPa 0,0 l/m 2 min 0 min 0,6 UV-I 359 W/m 2,6 km/h (1 Bft)
03.05.2013 09:56 13,9 C 16,8 C 79 % 1017,1 hPa 0,0 l/m 2 min 0 min 0,6 UV-I 378 W/m 0,0 km/h (0 Bft)
03.05.2013 09:58 14,0 C 17,3 C 79 % 1017,1 hPa 0,0 l/m 2 min 0 min 0,6 UV-I 381 W/m 0,0 km/h (0 Bft)
03.05.2013 10:00 14,0 C 17,3 C 79 % 1017,2 hPa 0,0 l/m 2 min 0 min 0,6 UV-I 383 W/m 2,6 km/h (1 Bft)
03.05.2013 10:02 14,0 C 17,9 C 78 % 1017,2 hPa 0,0 l/m 2 min 0 min 0,7 UV-I 404 W/m 0,0 km/h (0 Bft)
03.05.2013 10:04 14,2 C 17,9 C 79 % 1017,2 hPa 0,0 l/m 2 min 0 min 0,7 UV-I 413 W/m 0,0 km/h (0 Bft)
03.05.2013 10:06 14,2 C 17,9 C 78 % 1017,2 hPa 0,0 l/m 2 min 0 min 0,8 UV-I 422 W/m 0,0 km/h (0 Bft)
03.05.2013 10:08 14,3 C 17,9 C 78 % 1017,2 hPa 0,0 l/m 2 min 0 min 0,8 UV-I 436 W/m 10,3 km/h (2 Bft)
03.05.2013 10:10 14,5 C 18,4 C 78 % 1017,2 hPa 0,0 l/m 2 min 0 min 0,8 UV-I 431 W/m 2,6 km/h (1 Bft)
03.05.2013 10:12 14,6 C 18,4 C 77 % 1017,2 hPa 0,0 l/m 2 min 0 min 0,9 UV-I 462 W/m 5,1 km/h (1 Bft)
03.05.2013 10:14 14,7 C 18,4 C 77 % 1017,2 hPa 0,0 l/m 2 min 0 min 1,0 UV-I 482 W/m 10,3 km/h (2 Bft)
03.05.2013 10:16 14,7 C 17,9 C 76 % 1017,2 hPa 0,0 l/m 2 min 0 min 1,0 UV-I 489 W/m 12,9 km/h (3 Bft)
03.05.2013 10:18 14,8 C 17,9 C 76 % 1017,2 hPa 0,0 l/m 2 min 0 min 1,0 UV-I 503 W/m 7,7 km/h (2 Bft)
03.05.2013 10:20 14,8 C 18,4 C 76 % 1017,2 hPa 0,0 l/m 2 min 0 min 1,1 UV-I 519 W/m 5,1 km/h (1 Bft)
03.05.2013 10:22 14,9 C 19,0 C 76 % 1017,2 hPa 0,0 l/m 2 min 0 min 1,1 UV-I 533 W/m 2,6 km/h (1 Bft)
03.05.2013 10:24 15,0 C 19,0 C 75 % 1017,2 hPa 0,0 l/m 2 min 0 min 1,1 UV-I 526 W/m 10,3 km/h (2 Bft)
03.05.2013 10:26 15,1 C 19,0 C 75 % 1017,3 hPa 0,0 l/m 2 min 0 min 1,2 UV-I 550 W/m 2,6 km/h (1 Bft)
03.05.2013 10:28 15,1 C 17,9 C 74 % 1017,3 hPa 0,0 l/m 2 min 0 min 1,0 UV-I 380 W/m 2,6 km/h (1 Bft)
03.05.2013 10:30 15,1 C 16,8 C 74 % 1017,3 hPa 0,0 l/m 0 min 0 min 0,7 UV-I 265 W/m 10,3 km/h (2 Bft)
03.05.2013 10:32 15,1 C 16,2 C 74 % 1017,3 hPa 0,0 l/m 0 min 0 min 0,7 UV-I 283 W/m 5,1 km/h (1 Bft)
03.05.2013 10:34 15,1 C 15,7 C 74 % 1017,3 hPa 0,0 l/m 0 min 0 min 1,0 UV-I 323 W/m 7,7 km/h (2 Bft)
03.05.2013 10:36 15,1 C 17,3 C 73 % 1017,3 hPa 0,0 l/m 2 min 0 min 1,1 UV-I 527 W/m 2,6 km/h (1 Bft)
03.05.2013 10:38 15,2 C 17,9 C 74 % 1017,3 hPa 0,0 l/m 2 min 0 min 1,2 UV-I 552 W/m 10,3 km/h (2 Bft)
03.05.2013 10:40 15,2 C 18,4 C 73 % 1017,3 hPa 0,0 l/m 2 min 0 min 1,3 UV-I 580 W/m 12,9 km/h (3 Bft)
03.05.2013 10:42 15,3 C 18,4 C 74 % 1017,3 hPa 0,0 l/m 2 min 0 min 0,9 UV-I 555 W/m 7,7 km/h (2 Bft)
03.05.2013 10:44 15,3 C 17,3 C 73 % 1017,3 hPa 0,0 l/m 0 min 0 min 0,9 UV-I 325 W/m 10,3 km/h (2 Bft)
03.05.2013 10:46 15,3 C 16,8 C 73 % 1017,3 hPa 0,0 l/m 0 min 0 min 0,9 UV-I 357 W/m 12,9 km/h (3 Bft)
03.05.2013 10:48 15,3 C 16,8 C 73 % 1017,3 hPa 0,0 l/m 2 min 0 min 0,9 UV-I 366 W/m 2,6 km/h (1 Bft)
03.05.2013 10:50 15,3 C 17,3 C 73 % 1017,3 hPa 0,0 l/m 2 min 0 min 1,2 UV-I 461 W/m 10,3 km/h (2 Bft)
03.05.2013 10:52 15,4 C 16,8 C 73 % 1017,3 hPa 0,0 l/m 0 min 0 min 0,9 UV-I 346 W/m 10,3 km/h (2 Bft)
03.05.2013 10:54 15,4 C 16,2 C 72 % 1017,3 hPa 0,0 l/m 0 min 0 min 0,8 UV-I 304 W/m 10,3 km/h (2 Bft)
03.05.2013 10:56 15,4 C 15,7 C 72 % 1017,3 hPa 0,0 l/m 0 min 0 min 0,8 UV-I 274 W/m 10,3 km/h (2 Bft)
03.05.2013 10:58 15,4 C 16,2 C 72 % 1017,3 hPa 0,0 l/m 0 min 0 min 0,9 UV-I 299 W/m 0,0 km/h (0 Bft)
03.05.2013 11:00 15,4 C 15,7 C 72 % 1017,1 hPa 0,0 l/m 0 min 0 min 1,1 UV-I 327 W/m 12,9 km/h (3 Bft)
03.05.2013 11:02 15,3 C 16,8 C 72 % 1017,1 hPa 0,0 l/m 2 min 0 min 1,2 UV-I 573 W/m 12,9 km/h (3 Bft)
03.05.2013 11:04 15,3 C 17,3 C 72 % 1017,1 hPa 0,0 l/m 2 min 0 min 1,6 UV-I 527 W/m 12,9 km/h (3 Bft)
03.05.2013 11:06 15,3 C 17,3 C 72 % 1017,1 hPa 0,0 l/m 2 min 0 min 1,1 UV-I 656 W/m 7,7 km/h (2 Bft)
03.05.2013 11:08 15,4 C 17,9 C 72 % 1017,1 hPa 0,0 l/m 0 min 0 min 1,5 UV-I 330 W/m 0,0 km/h (0 Bft)
03.05.2013 11:10 15,4 C 18,4 C 73 % 1017,1 hPa 0,0 l/m 2 min 0 min 1,5 UV-I 580 W/m 12,9 km/h (3 Bft)
03.05.2013 11:12 15,5 C 18,4 C 72 % 1017,1 hPa 0,0 l/m 2 min 0 min 1,4 UV-I 548 W/m 12,9 km/h (3 Bft)
03.05.2013 11:14 15,6 C 17,9 C 72 % 1017,2 hPa 0,0 l/m 0 min 0 min 1,0 UV-I 329 W/m 2,6 km/h (1 Bft)
03.05.2013 11:16 15,7 C 17,9 C 72 % 1017,1 hPa 0,0 l/m 2 min 0 min 1,4 UV-I 468 W/m 10,3 km/h (2 Bft)
03.05.2013 11:18 15,8 C 19,0 C 72 % 1017,1 hPa 0,0 l/m 2 min 0 min 1,5 UV-I 527 W/m 2,6 km/h (1 Bft)
03.05.2013 11:20 15,8 C 19,0 C 72 % 1017,0 hPa 0,0 l/m 2 min 0 min 1,6 UV-I 601 W/m 2,6 km/h (1 Bft)
03.05.2013 11:22 15,9 C 19,0 C 71 % 1017,0 hPa 0,0 l/m 2 min 0 min 1,8 UV-I 680 W/m 2,6 km/h (1 Bft)
03.05.2013 11:24 16,0 C 18,4 C 70 % 1017,1 hPa 0,0 l/m 0 min 0 min 1,2 UV-I 378 W/m 12,9 km/h (3 Bft)
03.05.2013 11:26 15,9 C 17,9 C 70 % 1017,0 hPa 0,0 l/m 2 min 0 min 1,2 UV-I 406 W/m 2,6 km/h (1 Bft)
03.05.2013 11:28 15,9 C 17,9 C 69 % 1017,0 hPa 0,0 l/m 2 min 0 min 1,4 UV-I 446 W/m 2,6 km/h (1 Bft)
03.05.2013 11:30 15,9 C 17,3 C 70 % 1017,0 hPa 0,0 l/m 0 min 0 min 1,2 UV-I 362 W/m 10,3 km/h (2 Bft)
03.05.2013 11:32 15,8 C 17,3 C 69 % 1017,0 hPa 0,0 l/m 0 min 0 min 1,1 UV-I 330 W/m 5,1 km/h (1 Bft)
03.05.2013 11:34 15,9 C 17,3 C 72 % 1017,0 hPa 0,0 l/m 0 min 0 min 1,2 UV-I 350 W/m 2,6 km/h (1 Bft)
03.05.2013 11:36 15,9 C 17,3 C 71 % 1017,0 hPa 0,0 l/m 2 min 0 min 1,4 UV-I 466 W/m 0,0 km/h (0 Bft)
03.05.2013 11:38 15,9 C 17,3 C 70 % 1017,0 hPa 0,0 l/m 0 min 0 min 1,3 UV-I 383 W/m 12,9 km/h (3 Bft)
03.05.2013 11:40 15,7 C 17,3 C 69 % 1017,0 hPa 0,0 l/m 0 min 0 min 1,7 UV-I 378 W/m 12,9 km/h (3 Bft)
03.05.2013 11:42 15,7 C 17,3 C 70 % 1017,0 hPa 0,0 l/m 0 min 0 min 1,3 UV-I 355 W/m 7,7 km/h (2 Bft)
03.05.2013 11:44 15,7 C 17,3 C 71 % 1017,0 hPa 0,0 l/m 0 min 0 min 1,2 UV-I 343 W/m 0,0 km/h (0 Bft)
03.05.2013 11:46 15,7 C 16,8 C 71 % 1017,0 hPa 0,0 l/m 0 min 0 min 1,2 UV-I 341 W/m 18,0 km/h (3 Bft)
03.05.2013 11:48 15,7 C 16,8 C 70 % 1017,0 hPa 0,0 l/m 0 min 0 min 1,2 UV-I 313 W/m 12,9 km/h (3 Bft)
03.05.2013 11:50 15,6 C 16,2 C 70 % 1017,0 hPa 0,0 l/m 0 min 0 min 1,3 UV-I 376 W/m 12,9 km/h (3 Bft)
03.05.2013 11:52 15,4 C 16,8 C 70 % 1017,0 hPa 0,0 l/m 0 min 0 min 1,2 UV-I 320 W/m 2,6 km/h (1 Bft)
03.05.2013 11:54 15,5 C 16,8 C 71 % 1016,9 hPa 0,0 l/m 0 min 0 min 1,3 UV-I 330 W/m 10,3 km/h (2 Bft)
03.05.2013 11:56 15,4 C 16,8 C 70 % 1016,9 hPa 0,0 l/m 0 min 0 min 1,3 UV-I 345 W/m 10,3 km/h (2 Bft)
03.05.2013 11:58 15,4 C 16,8 C 70 % 1016,9 hPa 0,0 l/m 0 min 0 min 1,3 UV-I 339 W/m 0,0 km/h (0 Bft)
03.05.2013 12:00 15,4 C 16,8 C 70 % 1016,9 hPa 0,0 l/m 0 min 0 min 1,3 UV-I 362 W/m 2,6 km/h (1 Bft)
03.05.2013 12:02 15,4 C 16,8 C 71 % 1016,9 hPa 0,0 l/m 0 min 0 min 1,1 UV-I 283 W/m 0,0 km/h (0 Bft)
03.05.2013 12:04 15,5 C 16,8 C 71 % 1016,9 hPa 0,0 l/m 0 min 0 min 1,1 UV-I 262 W/m 7,7 km/h (2 Bft)
03.05.2013 12:06 15,6 C 16,2 C 70 % 1016,9 hPa 0,0 l/m 0 min 0 min 1,3 UV-I 301 W/m 15,4 km/h (3 Bft)
03.05.2013 12:08 15,4 C 16,8 C 70 % 1016,9 hPa 0,0 l/m 0 min 0 min 1,1 UV-I 281 W/m 5,1 km/h (1 Bft)
03.05.2013 12:10 15,3 C 16,2 C 70 % 1016,9 hPa 0,0 l/m 0 min 0 min 1,1 UV-I 264 W/m 0,0 km/h (0 Bft)
03.05.2013 12:12 15,4 C 16,2 C 71 % 1016,9 hPa 0,0 l/m 0 min 0 min 1,2 UV-I 276 W/m 2,6 km/h (1 Bft)
03.05.2013 12:14 15,6 C 16,8 C 70 % 1016,9 hPa 0,0 l/m 0 min 0 min 1,5 UV-I 366 W/m 7,7 km/h (2 Bft)
03.05.2013 12:16 15,6 C 16,8 C 70 % 1016,9 hPa 0,0 l/m 0 min 0 min 1,4 UV-I 362 W/m 18,0 km/h (3 Bft)
03.05.2013 12:18 15,6 C 17,3 C 70 % 1016,8 hPa 0,0 l/m 2 min 0 min 1,9 UV-I 677 W/m 18,0 km/h (3 Bft)
03.05.2013 12:20 15,8 C 17,9 C 70 % 1016,9 hPa 0,0 l/m 0 min 0 min 1,4 UV-I 357 W/m 2,6 km/h (1 Bft)
03.05.2013 12:22 16,0 C 17,9 C 70 % 1016,9 hPa 0,0 l/m 0 min 0 min 1,3 UV-I 329 W/m 0,0 km/h (0 Bft)
03.05.2013 12:24 16,1 C 17,3 C 69 % 1016,8 hPa 0,0 l/m 0 min 0 min 1,3 UV-I 320 W/m 0,0 km/h (0 Bft)
03.05.2013 12:26 16,2 C 17,9 C 70 % 1016,8 hPa 0,0 l/m 0 min 0 min 2,2 UV-I 329 W/m 0,0 km/h (0 Bft)
03.05.2013 12:28 16,6 C 19,0 C 69 % 1016,7 hPa 0,0 l/m 2 min 0 min 1,6 UV-I 645 W/m 2,6 km/h (1 Bft)
03.05.2013 12:30 16,6 C 19,0 C 67 % 1016,7 hPa 0,0 l/m 0 min 0 min 1,4 UV-I 334 W/m 10,3 km/h (2 Bft)
03.05.2013 12:32 16,4 C 18,4 C 67 % 1016,7 hPa 0,0 l/m 0 min 0 min 1,4 UV-I 367 W/m 10,3 km/h (2 Bft)
03.05.2013 12:34 16,3 C 18,4 C 68 % 1016,7 hPa 0,0 l/m 0 min 0 min 1,9 UV-I 394 W/m 10,3 km/h (2 Bft)
03.05.2013 12:36 16,2 C 19,0 C 69 % 1016,6 hPa 0,0 l/m 0 min 0 min 2,4 UV-I 394 W/m 10,3 km/h (2 Bft)
03.05.2013 12:38 16,3 C 20,1 C 68 % 1016,6 hPa 0,0 l/m 0 min 0 min 1,7 UV-I 394 W/m 5,1 km/h (1 Bft)
03.05.2013 12:40 16,5 C 19,6 C 69 % 1016,6 hPa 0,0 l/m 0 min 0 min 1,6 UV-I 422 W/m 10,3 km/h (2 Bft)
03.05.2013 12:42 16,6 C 18,4 C 67 % 1016,7 hPa 0,0 l/m 0 min 0 min 1,5 UV-I 359 W/m 15,4 km/h (3 Bft)
03.05.2013 12:44 16,4 C 17,9 C 66 % 1016,6 hPa 0,0 l/m 0 min 0 min 1,5 UV-I 366 W/m 12,9 km/h (3 Bft)
03.05.2013 12:46 16,4 C 17,9 C 67 % 1016,6 hPa 0,0 l/m 0 min 0 min 1,7 UV-I 366 W/m 2,6 km/h (1 Bft)
03.05.2013 12:48 16,4 C 17,9 C 68 % 1016,5 hPa 0,0 l/m 0 min 0 min 1,5 UV-I 406 W/m 2,6 km/h (1 Bft)
03.05.2013 12:50 16,6 C 18,4 C 69 % 1016,6 hPa 0,0 l/m 0 min 0 min 2,0 UV-I 431 W/m 5,1 km/h (1 Bft)
03.05.2013 12:52 16,9 C 19,6 C 67 % 1016,5 hPa 0,0 l/m 2 min 0 min 1,8 UV-I 701 W/m 10,3 km/h (2 Bft)
03.05.2013 12:54 17,2 C 21,2 C 66 % 1016,5 hPa 0,0 l/m 2 min 0 min 1,9 UV-I 812 W/m 2,6 km/h (1 Bft)
03.05.2013 12:56 17,3 C 20,1 C 65 % 1016,5 hPa 0,0 l/m 0 min 0 min 1,6 UV-I 336 W/m 10,3 km/h (2 Bft)
03.05.2013 12:58 17,3 C 20,7 C 65 % 1016,4 hPa 0,0 l/m 0 min 0 min 1,7 UV-I 346 W/m 7,7 km/h (2 Bft)
03.05.2013 13:00 17,4 C 21,2 C 63 % 1016,4 hPa 0,0 l/m 0 min 0 min 1,7 UV-I 346 W/m 15,4 km/h (3 Bft)
03.05.2013 13:02 17,3 C 20,7 C 64 % 1016,4 hPa 0,0 l/m 0 min 0 min 1,7 UV-I 346 W/m 15,4 km/h (3 Bft)
03.05.2013 13:04 17,3 C 21,8 C 64 % 1016,3 hPa 0,0 l/m 2 min 0 min 1,7 UV-I 817 W/m 10,3 km/h (2 Bft)
03.05.2013 13:06 17,4 C 21,2 C 64 % 1016,4 hPa 0,0 l/m 2 min 0 min 1,7 UV-I 810 W/m 23,2 km/h (4 Bft)
03.05.2013 13:08 17,3 C 21,8 C 63 % 1016,4 hPa 0,0 l/m 2 min 0 min 1,8 UV-I 902 W/m 15,4 km/h (3 Bft)
03.05.2013 13:10 17,1 C 21,8 C 64 % 1016,4 hPa 0,0 l/m 2 min 0 min 1,7 UV-I 833 W/m 10,3 km/h (2 Bft)
03.05.2013 13:12 17,0 C 20,7 C 64 % 1016,3 hPa 0,0 l/m 0 min 0 min 1,7 UV-I 371 W/m 2,6 km/h (1 Bft)
03.05.2013 13:14 16,9 C 21,2 C 64 % 1016,3 hPa 0,0 l/m 0 min 0 min 1,7 UV-I 371 W/m 10,3 km/h (2 Bft)
03.05.2013 13:16 17,3 C 22,3 C 66 % 1016,2 hPa 0,0 l/m 2 min 0 min 1,7 UV-I 837 W/m 5,1 km/h (1 Bft)
03.05.2013 13:18 17,7 C 21,2 C 64 % 1016,3 hPa 0,0 l/m 0 min 0 min 1,5 UV-I 304 W/m 2,6 km/h (1 Bft)
03.05.2013 13:20 17,7 C 19,6 C 63 % 1016,3 hPa 0,0 l/m 0 min 0 min 1,5 UV-I 290 W/m 15,4 km/h (3 Bft)
03.05.2013 13:22 17,6 C 20,7 C 63 % 1016,3 hPa 0,0 l/m 2 min 0 min 1,6 UV-I 842 W/m 10,3 km/h (2 Bft)
03.05.2013 13:24 17,7 C 21,2 C 62 % 1016,3 hPa 0,0 l/m 2 min 0 min 1,7 UV-I 793 W/m 12,9 km/h (3 Bft)
03.05.2013 13:26 17,6 C 20,7 C 63 % 1016,2 hPa 0,0 l/m 2 min 0 min 1,7 UV-I 793 W/m 7,7 km/h (2 Bft)
03.05.2013 13:28 17,8 C 22,3 C 63 % 1016,2 hPa 0,0 l/m 2 min 0 min 1,8 UV-I 809 W/m 10,3 km/h (2 Bft)
03.05.2013 13:30 18,3 C 23,4 C 65 % 1016,1 hPa 0,0 l/m 2 min 0 min 1,8 UV-I 773 W/m 5,1 km/h (1 Bft)
03.05.2013 13:32 18,3 C 22,9 C 61 % 1016,2 hPa 0,0 l/m 2 min 0 min 1,8 UV-I 807 W/m 7,7 km/h (2 Bft)
03.05.2013 13:34 18,1 C 22,9 C 62 % 1016,1 hPa 0,0 l/m 2 min 0 min 1,8 UV-I 810 W/m 7,7 km/h (2 Bft)
03.05.2013 13:36 18,5 C 24,0 C 63 % 1016,1 hPa 0,0 l/m 2 min 0 min 2,0 UV-I 875 W/m 2,6 km/h (1 Bft)
03.05.2013 13:38 18,8 C 24,6 C 61 % 1016,1 hPa 0,0 l/m 2 min 0 min 2,0 UV-I 824 W/m 10,3 km/h (2 Bft)
03.05.2013 13:40 18,8 C 21,8 C 59 % 1016,2 hPa 0,0 l/m 0 min 0 min 1,6 UV-I 367 W/m 15,4 km/h (3 Bft)
03.05.2013 13:42 18,3 C 20,1 C 59 % 1016,2 hPa 0,0 l/m 0 min 0 min 1,5 UV-I 309 W/m 15,4 km/h (3 Bft)
03.05.2013 13:44 17,9 C 19,0 C 60 % 1016,1 hPa 0,0 l/m 0 min 0 min 1,7 UV-I 325 W/m 10,3 km/h (2 Bft)
03.05.2013 13:46 17,9 C 19,6 C 62 % 1016,1 hPa 0,0 l/m 2 min 0 min 2,7 UV-I 780 W/m 12,9 km/h (3 Bft)
03.05.2013 13:48 18,1 C 20,1 C 61 % 1016,1 hPa 0,0 l/m 2 min 0 min 2,9 UV-I 823 W/m 10,3 km/h (2 Bft)
03.05.2013 13:50 18,3 C 20,7 C 61 % 1016,1 hPa 0,0 l/m 2 min 0 min 2,8 UV-I 826 W/m 2,6 km/h (1 Bft)
03.05.2013 13:52 18,7 C 20,7 C 60 % 1016,1 hPa 0,0 l/m 2 min 0 min 1,9 UV-I 789 W/m 12,9 km/h (3 Bft)
03.05.2013 13:54 18,7 C 20,7 C 59 % 1016,1 hPa 0,0 l/m 2 min 0 min 2,7 UV-I 800 W/m 18,0 km/h (3 Bft)
03.05.2013 13:56 18,7 C 20,7 C 59 % 1016,1 hPa 0,0 l/m 2 min 0 min 2,2 UV-I 469 W/m 7,7 km/h (2 Bft)
03.05.2013 13:58 18,6 C 20,1 C 59 % 1016,1 hPa 0,0 l/m 2 min 0 min 2,5 UV-I 469 W/m 10,3 km/h (2 Bft)
03.05.2013 14:00 18,7 C 20,7 C 60 % 1016,0 hPa 0,0 l/m 2 min 0 min 1,9 UV-I 598 W/m 7,7 km/h (2 Bft)
03.05.2013 14:02 18,6 C 20,1 C 58 % 1016,1 hPa 0,0 l/m 0 min 0 min 1,6 UV-I 334 W/m 23,2 km/h (4 Bft)
03.05.2013 14:04 18,3 C 19,6 C 59 % 1016,1 hPa 0,0 l/m 0 min 0 min 2,4 UV-I 338 W/m 10,3 km/h (2 Bft)
03.05.2013 14:06 18,2 C 19,6 C 60 % 1016,1 hPa 0,0 l/m 0 min 0 min 1,5 UV-I 276 W/m 0,0 km/h (0 Bft)
03.05.2013 14:08 18,1 C 19,0 C 59 % 1016,1 hPa 0,0 l/m 0 min 0 min 2,5 UV-I 290 W/m 18,0 km/h (3 Bft)
03.05.2013 14:10 17,8 C 18,4 C 59 % 1016,1 hPa 0,0 l/m 2 min 0 min 2,7 UV-I 795 W/m 15,4 km/h (3 Bft)
03.05.2013 14:12 18,0 C 19,0 C 60 % 1016,1 hPa 0,0 l/m 2 min 0 min 2,7 UV-I 765 W/m 15,4 km/h (3 Bft)
03.05.2013 14:14 18,1 C 19,6 C 59 % 1016,1 hPa 0,0 l/m 2 min 0 min 2,6 UV-I 763 W/m 18,0 km/h (3 Bft)
03.05.2013 14:16 18,3 C 19,6 C 60 % 1016,1 hPa 0,0 l/m 2 min 0 min 2,5 UV-I 805 W/m 5,1 km/h (1 Bft)
03.05.2013 14:18 18,6 C 19,6 C 59 % 1016,1 hPa 0,0 l/m 0 min 0 min 1,5 UV-I 357 W/m 7,7 km/h (2 Bft)
03.05.2013 14:20 18,6 C 19,6 C 58 % 1016,1 hPa 0,0 l/m 0 min 0 min 1,6 UV-I 357 W/m 5,1 km/h (1 Bft)
03.05.2013 14:22 18,3 C 19,6 C 59 % 1016,0 hPa 0,0 l/m 2 min 0 min 2,4 UV-I 789 W/m 12,9 km/h (3 Bft)
03.05.2013 14:24 18,3 C 19,6 C 59 % 1016,0 hPa 0,0 l/m 2 min 0 min 2,2 UV-I 735 W/m 10,3 km/h (2 Bft)
03.05.2013 14:26 18,7 C 20,1 C 60 % 1016,0 hPa 0,0 l/m 0 min 0 min 1,3 UV-I 410 W/m 7,7 km/h (2 Bft)
03.05.2013 14:28 18,8 C 19,6 C 58 % 1016,1 hPa 0,0 l/m 0 min 0 min 1,2 UV-I 250 W/m 15,4 km/h (3 Bft)
03.05.2013 14:30 18,6 C 19,0 C 58 % 1016,1 hPa 0,0 l/m 0 min 0 min 1,2 UV-I 246 W/m 7,7 km/h (2 Bft)
03.05.2013 14:32 18,4 C 19,0 C 60 % 1016,1 hPa 0,0 l/m 0 min 0 min 1,3 UV-I 269 W/m 2,6 km/h (1 Bft)
03.05.2013 14:34 18,3 C 19,0 C 59 % 1016,1 hPa 0,0 l/m 0 min 0 min 1,7 UV-I 313 W/m 0,0 km/h (0 Bft)
03.05.2013 14:36 18,3 C 19,0 C 59 % 1016,1 hPa 0,0 l/m 2 min 0 min 2,6 UV-I 810 W/m 2,6 km/h (1 Bft)
03.05.2013 14:38 18,7 C 20,1 C 61 % 1016,1 hPa 0,0 l/m 2 min 0 min 2,7 UV-I 833 W/m 12,9 km/h (3 Bft)
03.05.2013 14:40 18,9 C 20,1 C 59 % 1016,0 hPa 0,0 l/m 2 min 0 min 2,7 UV-I 817 W/m 10,3 km/h (2 Bft)
03.05.2013 14:42 19,3 C 20,7 C 58 % 1016,0 hPa 0,0 l/m 2 min 0 min 2,5 UV-I 791 W/m 2,6 km/h (1 Bft)
03.05.2013 14:44 19,4 C 20,1 C 56 % 1016,1 hPa 0,0 l/m 2 min 0 min 2,2 UV-I 728 W/m 15,4 km/h (3 Bft)
03.05.2013 14:46 19,1 C 19,6 C 55 % 1016,1 hPa 0,0 l/m 0 min 0 min 1,9 UV-I 366 W/m 15,4 km/h (3 Bft)
03.05.2013 14:48 18,8 C 20,1 C 58 % 1016,1 hPa 0,0 l/m 2 min 0 min 2,3 UV-I 745 W/m 2,6 km/h (1 Bft)
03.05.2013 14:50 18,9 C 20,1 C 58 % 1016,0 hPa 0,0 l/m 2 min 0 min 1,5 UV-I 749 W/m 12,9 km/h (3 Bft)
03.05.2013 14:52 18,8 C 19,6 C 58 % 1016,1 hPa 0,0 l/m 2 min 0 min 2,4 UV-I 749 W/m 15,4 km/h (3 Bft)
03.05.2013 14:54 18,8 C 19,6 C 59 % 1016,0 hPa 0,0 l/m 2 min 0 min 1,7 UV-I 679 W/m 12,9 km/h (3 Bft)
03.05.2013 14:56 18,7 C 19,6 C 58 % 1016,0 hPa 0,0 l/m 2 min 0 min 2,7 UV-I 679 W/m 12,9 km/h (3 Bft)
03.05.2013 14:58 18,8 C 19,6 C 58 % 1015,9 hPa 0,0 l/m 2 min 0 min 2,7 UV-I 838 W/m 12,9 km/h (3 Bft)
03.05.2013 15:00 18,9 C 20,1 C 61 % 1015,9 hPa 0,0 l/m 2 min 0 min 2,8 UV-I 851 W/m 12,9 km/h (3 Bft)
03.05.2013 15:02 19,7 C 21,2 C 58 % 1015,9 hPa 0,0 l/m 2 min 0 min 2,8 UV-I 853 W/m 0,0 km/h (0 Bft)
03.05.2013 15:04 19,6 C 20,7 C 56 % 1015,9 hPa 0,0 l/m 2 min 0 min 2,5 UV-I 812 W/m 10,3 km/h (2 Bft)
03.05.2013 15:06 19,6 C 20,7 C 57 % 1015,9 hPa 0,0 l/m 2 min 0 min 1,5 UV-I 761 W/m 12,9 km/h (3 Bft)
03.05.2013 15:08 19,3 C 19,6 C 56 % 1015,9 hPa 0,0 l/m 0 min 0 min 1,2 UV-I 234 W/m 12,9 km/h (3 Bft)
03.05.2013 15:10 18,9 C 19,0 C 57 % 1015,9 hPa 0,0 l/m 0 min 0 min 1,1 UV-I 206 W/m 10,3 km/h (2 Bft)
03.05.2013 15:12 18,7 C 18,4 C 57 % 1015,9 hPa 0,0 l/m 0 min 0 min 1,2 UV-I 221 W/m 15,4 km/h (3 Bft)
03.05.2013 15:14 18,3 C 18,4 C 58 % 1015,9 hPa 0,0 l/m 0 min 0 min 1,6 UV-I 234 W/m 2,6 km/h (1 Bft)
03.05.2013 15:16 18,3 C 18,4 C 60 % 1015,9 hPa 0,0 l/m 2 min 0 min 2,2 UV-I 673 W/m 0,0 km/h (0 Bft)
03.05.2013 15:18 18,3 C 19,0 C 57 % 1015,9 hPa 0,0 l/m 2 min 0 min 2,1 UV-I 666 W/m 2,6 km/h (1 Bft)
03.05.2013 15:20 18,3 C 18,4 C 58 % 1015,8 hPa 0,0 l/m 0 min 0 min 1,4 UV-I 292 W/m 10,3 km/h (2 Bft)
03.05.2013 15:22 18,4 C 19,0 C 58 % 1015,8 hPa 0,0 l/m 0 min 0 min 2,2 UV-I 292 W/m 12,9 km/h (3 Bft)
03.05.2013 15:24 18,5 C 19,0 C 58 % 1015,8 hPa 0,0 l/m 2 min 0 min 2,2 UV-I 693 W/m 20,6 km/h (4 Bft)
03.05.2013 15:26 18,7 C 19,6 C 59 % 1015,8 hPa 0,0 l/m 2 min 0 min 2,3 UV-I 710 W/m 12,9 km/h (3 Bft)
03.05.2013 15:28 18,8 C 19,0 C 57 % 1015,8 hPa 0,0 l/m 2 min 0 min 2,2 UV-I 703 W/m 18,0 km/h (3 Bft)
03.05.2013 15:30 18,8 C 19,6 C 56 % 1015,8 hPa 0,0 l/m 2 min 0 min 2,3 UV-I 703 W/m 15,4 km/h (3 Bft)
03.05.2013 15:32 18,8 C 19,6 C 56 % 1015,8 hPa 0,0 l/m 2 min 0 min 2,2 UV-I 707 W/m 15,4 km/h (3 Bft)
03.05.2013 15:34 19,0 C 20,1 C 57 % 1015,8 hPa 0,0 l/m 2 min 0 min 2,3 UV-I 747 W/m 7,7 km/h (2 Bft)
03.05.2013 15:36 19,2 C 20,1 C 58 % 1015,7 hPa 0,0 l/m 2 min 0 min 2,2 UV-I 731 W/m 12,9 km/h (3 Bft)
03.05.2013 15:38 19,9 C 20,7 C 56 % 1015,7 hPa 0,0 l/m 2 min 0 min 2,2 UV-I 745 W/m 12,9 km/h (3 Bft)
03.05.2013 15:40 19,8 C 20,7 C 56 % 1015,8 hPa 0,0 l/m 2 min 0 min 2,0 UV-I 701 W/m 23,2 km/h (4 Bft)
03.05.2013 15:42 19,5 C 20,1 C 56 % 1015,8 hPa 0,0 l/m 2 min 0 min 1,9 UV-I 668 W/m 15,4 km/h (3 Bft)
03.05.2013 15:44 19,2 C 19,6 C 56 % 1015,8 hPa 0,0 l/m 2 min 0 min 1,5 UV-I 650 W/m 23,2 km/h (4 Bft)
03.05.2013 15:46 19,1 C 19,6 C 57 % 1015,8 hPa 0,0 l/m 2 min 0 min 1,3 UV-I 650 W/m 12,9 km/h (3 Bft)
03.05.2013 15:48 19,0 C 19,6 C 56 % 1015,8 hPa 0,0 l/m 2 min 0 min 1,6 UV-I 650 W/m 12,9 km/h (3 Bft)
03.05.2013 15:50 19,1 C 19,6 C 56 % 1015,8 hPa 0,0 l/m 2 min 0 min 1,8 UV-I 605 W/m 7,7 km/h (2 Bft)
03.05.2013 15:52 19,3 C 20,1 C 56 % 1015,7 hPa 0,0 l/m 2 min 0 min 1,9 UV-I 631 W/m 10,3 km/h (2 Bft)
03.05.2013 15:54 19,2 C 20,1 C 54 % 1015,8 hPa 0,0 l/m 2 min 0 min 2,0 UV-I 663 W/m 15,4 km/h (3 Bft)
03.05.2013 15:56 19,0 C 19,6 C 55 % 1015,7 hPa 0,0 l/m 2 min 0 min 1,9 UV-I 643 W/m 7,7 km/h (2 Bft)
03.05.2013 15:58 19,2 C 20,1 C 57 % 1015,7 hPa 0,0 l/m 2 min 0 min 1,9 UV-I 638 W/m 20,6 km/h (4 Bft)
03.05.2013 16:00 19,1 C 19,6 C 54 % 1015,7 hPa 0,0 l/m 2 min 0 min 1,8 UV-I 610 W/m 15,4 km/h (3 Bft)
03.05.2013 16:02 19,1 C 19,6 C 54 % 1015,6 hPa 0,0 l/m 2 min 0 min 1,7 UV-I 534 W/m 7,7 km/h (2 Bft)
03.05.2013 16:04 19,1 C 20,1 C 56 % 1015,6 hPa 0,0 l/m 2 min 0 min 1,3 UV-I 559 W/m 7,7 km/h (2 Bft)
03.05.2013 16:06 19,1 C 20,1 C 54 % 1015,6 hPa 0,0 l/m 0 min 0 min 1,4 UV-I 281 W/m 15,4 km/h (3 Bft)
03.05.2013 16:08 18,8 C 19,6 C 55 % 1015,5 hPa 0,0 l/m 0 min 0 min 1,1 UV-I 257 W/m 18,0 km/h (3 Bft)
03.05.2013 16:10 18,7 C 19,0 C 54 % 1015,5 hPa 0,0 l/m 0 min 0 min 1,6 UV-I 279 W/m 15,4 km/h (3 Bft)
03.05.2013 16:12 18,7 C 19,6 C 55 % 1015,6 hPa 0,0 l/m 2 min 0 min 1,6 UV-I 601 W/m 12,9 km/h (3 Bft)
03.05.2013 16:14 18,8 C 19,6 C 55 % 1015,6 hPa 0,0 l/m 2 min 0 min 1,5 UV-I 577 W/m 15,4 km/h (3 Bft)
03.05.2013 16:16 18,8 C 19,6 C 54 % 1015,6 hPa 0,0 l/m 2 min 0 min 1,5 UV-I 577 W/m 18,0 km/h (3 Bft)
03.05.2013 16:18 18,9 C 19,6 C 54 % 1015,5 hPa 0,0 l/m 2 min 0 min 1,6 UV-I 591 W/m 12,9 km/h (3 Bft)
03.05.2013 16:20 18,9 C 20,1 C 55 % 1015,5 hPa 0,0 l/m 2 min 0 min 1,6 UV-I 615 W/m 12,9 km/h (3 Bft)
03.05.2013 16:22 19,1 C 20,1 C 53 % 1015,6 hPa 0,0 l/m 2 min 0 min 1,5 UV-I 594 W/m 10,3 km/h (2 Bft)
03.05.2013 16:24 19,2 C 20,1 C 55 % 1015,5 hPa 0,0 l/m 2 min 0 min 1,5 UV-I 613 W/m 5,1 km/h (1 Bft)
03.05.2013 16:26 19,6 C 20,7 C 54 % 1015,6 hPa 0,0 l/m 2 min 0 min 1,4 UV-I 598 W/m 10,3 km/h (2 Bft)
03.05.2013 16:28 19,4 C 20,7 C 53 % 1015,6 hPa 0,0 l/m 2 min 0 min 1,3 UV-I 548 W/m 12,9 km/h (3 Bft)
03.05.2013 16:30 19,3 C 20,7 C 54 % 1015,6 hPa 0,0 l/m 2 min 0 min 1,3 UV-I 577 W/m 12,9 km/h (3 Bft)
03.05.2013 16:32 19,2 C 20,7 C 54 % 1015,6 hPa 0,0 l/m 2 min 0 min 1,2 UV-I 547 W/m 10,3 km/h (2 Bft)
03.05.2013 16:34 19,3 C 20,1 C 54 % 1015,6 hPa 0,0 l/m 2 min 0 min 1,0 UV-I 520 W/m 12,9 km/h (3 Bft)
03.05.2013 16:36 19,3 C 20,1 C 55 % 1015,6 hPa 0,0 l/m 0 min 0 min 0,7 UV-I 253 W/m 12,9 km/h (3 Bft)
03.05.2013 16:38 19,3 C 20,1 C 54 % 1015,6 hPa 0,0 l/m 0 min 0 min 0,5 UV-I 229 W/m 18,0 km/h (3 Bft)
03.05.2013 16:40 19,2 C 19,6 C 54 % 1015,6 hPa 0,0 l/m 0 min 0 min 0,5 UV-I 221 W/m 18,0 km/h (3 Bft)
03.05.2013 16:42 18,9 C 19,0 C 55 % 1015,5 hPa 0,0 l/m 0 min 0 min 0,7 UV-I 220 W/m 18,0 km/h (3 Bft)
03.05.2013 16:44 18,8 C 19,0 C 55 % 1015,5 hPa 0,0 l/m 0 min 0 min 0,0 UV-I 185 W/m 15,4 km/h (3 Bft)
03.05.2013 16:46 18,9 C 19,0 C 56 % 1015,5 hPa 0,0 l/m 0 min 0 min 0,0 UV-I 178 W/m 2,6 km/h (1 Bft)
03.05.2013 16:48 18,9 C 19,0 C 56 % 1015,5 hPa 0,0 l/m 0 min 0 min 0,0 UV-I 171 W/m 10,3 km/h (2 Bft)
03.05.2013 16:50 18,8 C 18,4 C 55 % 1015,5 hPa 0,0 l/m 0 min 0 min 0,0 UV-I 163 W/m 12,9 km/h (3 Bft)
03.05.2013 16:52 18,7 C 18,4 C 55 % 1015,5 hPa 0,0 l/m 0 min 0 min 0,0 UV-I 158 W/m 15,4 km/h (3 Bft)
03.05.2013 16:54 18,6 C 18,4 C 55 % 1015,5 hPa 0,0 l/m 0 min 0 min 0,0 UV-I 158 W/m 7,7 km/h (2 Bft)
03.05.2013 16:56 18,5 C 18,4 C 55 % 1015,5 hPa 0,0 l/m 0 min 0 min 0,0 UV-I 165 W/m 12,9 km/h (3 Bft)
03.05.2013 16:58 18,4 C 17,9 C 54 % 1015,5 hPa 0,0 l/m 0 min 0 min 0,0 UV-I 169 W/m 7,7 km/h (2 Bft)
03.05.2013 17:00 18,3 C 17,9 C 54 % 1015,5 hPa 0,0 l/m 0 min 0 min 0,0 UV-I 178 W/m 12,9 km/h (3 Bft)
03.05.2013 17:02 18,3 C 17,9 C 54 % 1015,4 hPa 0,0 l/m 0 min 0 min 0,5 UV-I 188 W/m 15,4 km/h (3 Bft)
03.05.2013 17:04 18,3 C 17,9 C 55 % 1015,4 hPa 0,0 l/m 0 min 0 min 0,5 UV-I 214 W/m 10,3 km/h (2 Bft)
03.05.2013 17:06 18,4 C 17,9 C 55 % 1015,5 hPa 0,0 l/m 0 min 0 min 0,6 UV-I 294 W/m 7,7 km/h (2 Bft)
03.05.2013 17:08 18,5 C 18,4 C 54 % 1015,4 hPa 0,0 l/m 2 min 0 min 0,7 UV-I 443 W/m 10,3 km/h (2 Bft)
03.05.2013 17:10 18,8 C 18,4 C 55 % 1015,3 hPa 0,0 l/m 2 min 0 min 0,7 UV-I 427 W/m 12,9 km/h (3 Bft)
03.05.2013 17:12 18,9 C 19,0 C 55 % 1015,4 hPa 0,0 l/m 2 min 0 min 0,5 UV-I 406 W/m 10,3 km/h (2 Bft)
03.05.2013 17:14 19,1 C 19,0 C 55 % 1015,2 hPa 0,0 l/m 2 min 0 min 0,6 UV-I 357 W/m 10,3 km/h (2 Bft)
03.05.2013 17:16 19,1 C 19,0 C 54 % 1015,3 hPa 0,0 l/m 0 min 0 min 0,6 UV-I 283 W/m 12,9 km/h (3 Bft)
03.05.2013 17:18 19,1 C 19,0 C 53 % 1015,3 hPa 0,0 l/m 2 min 0 min 0,6 UV-I 461 W/m 12,9 km/h (3 Bft)
03.05.2013 17:20 19,1 C 19,0 C 54 % 1015,3 hPa 0,0 l/m 2 min 0 min 0,0 UV-I 445 W/m 7,7 km/h (2 Bft)
03.05.2013 17:22 19,2 C 19,0 C 54 % 1015,3 hPa 0,0 l/m 2 min 0 min 0,0 UV-I 432 W/m 12,9 km/h (3 Bft)
03.05.2013 17:24 19,2 C 19,0 C 54 % 1015,3 hPa 0,0 l/m 2 min 0 min 0,0 UV-I 338 W/m 10,3 km/h (2 Bft)
03.05.2013 17:26 19,2 C 19,0 C 54 % 1015,2 hPa 0,0 l/m 0 min 0 min 0,0 UV-I 278 W/m 18,0 km/h (3 Bft)
03.05.2013 17:28 19,2 C 19,0 C 53 % 1015,3 hPa 0,0 l/m 0 min 0 min 0,0 UV-I 283 W/m 12,9 km/h (3 Bft)
03.05.2013 17:30 19,1 C 19,0 C 54 % 1015,2 hPa 0,0 l/m 0 min 0 min 0,0 UV-I 221 W/m 12,9 km/h (3 Bft)
03.05.2013 17:32 19,1 C 19,0 C 54 % 1015,2 hPa 0,0 l/m 2 min 0 min 0,0 UV-I 330 W/m 18,0 km/h (3 Bft)
03.05.2013 17:34 19,2 C 19,0 C 54 % 1015,3 hPa 0,0 l/m 0 min 0 min 0,0 UV-I 225 W/m 12,9 km/h (3 Bft)
03.05.2013 17:36 19,2 C 19,0 C 55 % 1015,2 hPa 0,0 l/m 2 min 0 min 0,0 UV-I 301 W/m 18,0 km/h (3 Bft)
03.05.2013 17:38 19,1 C 18,4 C 53 % 1015,2 hPa 0,0 l/m 2 min 0 min 0,0 UV-I 279 W/m 18,0 km/h (3 Bft)
03.05.2013 17:40 18,9 C 18,4 C 54 % 1015,3 hPa 0,0 l/m 0 min 0 min 0,0 UV-I 234 W/m 15,4 km/h (3 Bft)
03.05.2013 17:42 18,8 C 18,4 C 54 % 1015,3 hPa 0,0 l/m 0 min 0 min 0,0 UV-I 234 W/m 18,0 km/h (3 Bft)
03.05.2013 17:44 18,8 C 18,4 C 56 % 1015,3 hPa 0,0 l/m 0 min 0 min 0,0 UV-I 253 W/m 7,7 km/h (2 Bft)
03.05.2013 17:46 18,9 C 18,4 C 55 % 1015,3 hPa 0,0 l/m 0 min 0 min 0,0 UV-I 236 W/m 7,7 km/h (2 Bft)
03.05.2013 17:48 18,8 C 18,4 C 55 % 1015,2 hPa 0,0 l/m 0 min 0 min 0,0 UV-I 195 W/m 15,4 km/h (3 Bft)
03.05.2013 17:50 18,7 C 18,4 C 55 % 1015,3 hPa 0,0 l/m 0 min 0 min 0,0 UV-I 151 W/m 12,9 km/h (3 Bft)
03.05.2013 17:52 18,7 C 18,4 C 55 % 1015,3 hPa 0,0 l/m 0 min 0 min 0,0 UV-I 149 W/m 7,7 km/h (2 Bft)
03.05.2013 17:54 18,7 C 18,4 C 55 % 1015,3 hPa 0,0 l/m 0 min 0 min 0,0 UV-I 148 W/m 10,3 km/h (2 Bft)
03.05.2013 17:56 18,6 C 17,9 C 55 % 1015,3 hPa 0,0 l/m 0 min 0 min 0,0 UV-I 146 W/m 12,9 km/h (3 Bft)
03.05.2013 17:58 18,6 C 17,9 C 56 % 1015,3 hPa 0,0 l/m 0 min 0 min 0,0 UV-I 149 W/m 12,9 km/h (3 Bft)
03.05.2013 18:00 18,6 C 17,9 C 56 % 1015,2 hPa 0,0 l/m 0 min 0 min 0,0 UV-I 176 W/m 10,3 km/h (2 Bft)
03.05.2013 18:02 18,6 C 17,9 C 56 % 1015,2 hPa 0,0 l/m 2 min 0 min 0,0 UV-I 267 W/m 7,7 km/h (2 Bft)
03.05.2013 18:04 18,6 C 17,9 C 56 % 1015,2 hPa 0,0 l/m 2 min 0 min 0,0 UV-I 239 W/m 7,7 km/h (2 Bft)
03.05.2013 18:06 18,7 C 17,9 C 56 % 1015,2 hPa 0,0 l/m 2 min 0 min 0,0 UV-I 258 W/m 2,6 km/h (1 Bft)
03.05.2013 18:08 18,7 C 17,3 C 55 % 1015,2 hPa 0,0 l/m 2 min 0 min 0,0 UV-I 248 W/m 12,9 km/h (3 Bft)
03.05.2013 18:10 18,7 C 16,2 C 55 % 1015,1 hPa 0,0 l/m 2 min 0 min 0,0 UV-I 237 W/m 12,9 km/h (3 Bft)
03.05.2013 18:12 18,7 C 16,2 C 55 % 1015,1 hPa 0,0 l/m 0 min 0 min 0,0 UV-I 151 W/m 10,3 km/h (2 Bft)
03.05.2013 18:14 18,7 C 16,2 C 55 % 1015,1 hPa 0,0 l/m 0 min 0 min 0,0 UV-I 149 W/m 7,7 km/h (2 Bft)
03.05.2013 18:16 18,7 C 16,8 C 55 % 1015,1 hPa 0,0 l/m 0 min 0 min 0,0 UV-I 132 W/m 10,3 km/h (2 Bft)
03.05.2013 18:18 18,6 C 17,3 C 55 % 1015,1 hPa 0,0 l/m 0 min 0 min 0,0 UV-I 158 W/m 7,7 km/h (2 Bft)
03.05.2013 18:20 18,6 C 17,3 C 55 % 1015,1 hPa 0,0 l/m 0 min 0 min 0,0 UV-I 156 W/m 10,3 km/h (2 Bft)
03.05.2013 18:22 18,6 C 17,3 C 55 % 1015,1 hPa 0,0 l/m 0 min 0 min 0,0 UV-I 174 W/m 7,7 km/h (2 Bft)
03.05.2013 18:24 18,7 C 17,9 C 56 % 1015,1 hPa 0,0 l/m 0 min 0 min 0,0 UV-I 156 W/m 2,6 km/h (1 Bft)
03.05.2013 18:26 18,7 C 17,9 C 55 % 1015,1 hPa 0,0 l/m 0 min 0 min 0,0 UV-I 155 W/m 10,3 km/h (2 Bft)
03.05.2013 18:28 18,8 C 17,9 C 55 % 1015,1 hPa 0,0 l/m 0 min 0 min 0,0 UV-I 162 W/m 10,3 km/h (2 Bft)
03.05.2013 18:30 18,9 C 17,9 C 55 % 1015,1 hPa 0,0 l/m 0 min 0 min 0,0 UV-I 156 W/m 2,6 km/h (1 Bft)
03.05.2013 18:32 18,9 C 17,9 C 55 % 1015,0 hPa 0,0 l/m 0 min 0 min 0,0 UV-I 155 W/m 2,6 km/h (1 Bft)
03.05.2013 18:34 18,9 C 17,9 C 55 % 1015,1 hPa 0,0 l/m 0 min 0 min 0,0 UV-I 186 W/m 12,9 km/h (3 Bft)
03.05.2013 18:36 18,9 C 17,9 C 55 % 1015,1 hPa 0,0 l/m 0 min 0 min 0,0 UV-I 186 W/m 12,9 km/h (3 Bft)
03.05.2013 18:38 18,8 C 17,9 C 55 % 1015,1 hPa 0,0 l/m 0 min 0 min 0,0 UV-I 151 W/m 10,3 km/h (2 Bft)
03.05.2013 18:40 18,8 C 17,9 C 55 % 1015,0 hPa 0,0 l/m 0 min 0 min 0,0 UV-I 183 W/m 10,3 km/h (2 Bft)
03.05.2013 18:42 18,8 C 17,9 C 55 % 1015,1 hPa 0,0 l/m 0 min 0 min 0,0 UV-I 176 W/m 12,9 km/h (3 Bft)
03.05.2013 18:44 18,7 C 17,9 C 55 % 1015,1 hPa 0,0 l/m 0 min 0 min 0,0 UV-I 139 W/m 15,4 km/h (3 Bft)
03.05.2013 18:46 18,7 C 17,9 C 55 % 1015,1 hPa 0,0 l/m 0 min 0 min 0,0 UV-I 123 W/m 12,9 km/h (3 Bft)
03.05.2013 18:48 18,7 C 17,9 C 55 % 1015,0 hPa 0,0 l/m 0 min 0 min 0,0 UV-I 118 W/m 10,3 km/h (2 Bft)
03.05.2013 18:50 18,7 C 17,9 C 55 % 1015,0 hPa 0,0 l/m 0 min 0 min 0,0 UV-I 116 W/m 10,3 km/h (2 Bft)
03.05.2013 18:52 18,7 C 17,3 C 56 % 1014,9 hPa 0,0 l/m 0 min 0 min 0,0 UV-I 111 W/m 2,6 km/h (1 Bft)
03.05.2013 18:54 18,7 C 17,3 C 55 % 1015,0 hPa 0,0 l/m 0 min 0 min 0,0 UV-I 109 W/m 5,1 km/h (1 Bft)
03.05.2013 18:56 18,6 C 17,3 C 56 % 1015,0 hPa 0,0 l/m 0 min 0 min 0,0 UV-I 107 W/m 12,9 km/h (3 Bft)
03.05.2013 18:58 18,7 C 17,3 C 56 % 1015,0 hPa 0,0 l/m 0 min 0 min 0,0 UV-I 104 W/m 7,7 km/h (2 Bft)
03.05.2013 19:00 18,6 C 17,3 C 55 % 1015,0 hPa 0,0 l/m 0 min 0 min 0,0 UV-I 102 W/m 12,9 km/h (3 Bft)
03.05.2013 19:02 18,6 C 17,3 C 56 % 1014,9 hPa 0,0 l/m 0 min 0 min 0,0 UV-I 100 W/m 7,7 km/h (2 Bft)
03.05.2013 19:04 18,5 C 17,3 C 56 % 1015,0 hPa 0,0 l/m 0 min 0 min 0,0 UV-I 98 W/m 5,1 km/h (1 Bft)
03.05.2013 19:06 18,4 C 17,3 C 57 % 1014,9 hPa 0,0 l/m 0 min 0 min 0,0 UV-I 98 W/m 10,3 km/h (2 Bft)
03.05.2013 19:08 18,4 C 17,3 C 56 % 1015,0 hPa 0,0 l/m 0 min 0 min 0,0 UV-I 97 W/m 12,9 km/h (3 Bft)
03.05.2013 19:10 18,4 C 17,3 C 56 % 1014,9 hPa 0,0 l/m 0 min 0 min 0,0 UV-I 97 W/m 7,7 km/h (2 Bft)
03.05.2013 19:12 18,4 C 17,3 C 56 % 1015,0 hPa 0,0 l/m 0 min 0 min 0,0 UV-I 97 W/m 12,9 km/h (3 Bft)
03.05.2013 19:14 18,4 C 17,3 C 56 % 1015,0 hPa 0,0 l/m 0 min 0 min 0,0 UV-I 98 W/m 12,9 km/h (3 Bft)
03.05.2013 19:16 18,4 C 17,3 C 57 % 1015,0 hPa 0,0 l/m 0 min 0 min 0,0 UV-I 98 W/m 0,0 km/h (0 Bft)
03.05.2013 19:18 18,4 C 17,3 C 57 % 1015,0 hPa 0,0 l/m 0 min 0 min 0,0 UV-I 98 W/m 7,7 km/h (2 Bft)
03.05.2013 19:20 18,5 C 17,3 C 57 % 1015,0 hPa 0,0 l/m 0 min 0 min 0,0 UV-I 95 W/m 7,7 km/h (2 Bft)
03.05.2013 19:22 18,4 C 17,3 C 56 % 1015,0 hPa 0,0 l/m 0 min 0 min 0,0 UV-I 93 W/m 15,4 km/h (3 Bft)
03.05.2013 19:24 18,4 C 17,3 C 56 % 1015,0 hPa 0,0 l/m 0 min 0 min 0,0 UV-I 91 W/m 10,3 km/h (2 Bft)
03.05.2013 19:26 18,4 C 17,3 C 56 % 1015,0 hPa 0,0 l/m 0 min 0 min 0,0 UV-I 86 W/m 10,3 km/h (2 Bft)
03.05.2013 19:28 18,4 C 17,3 C 56 % 1015,0 hPa 0,0 l/m 0 min 0 min 0,0 UV-I 83 W/m 7,7 km/h (2 Bft)
03.05.2013 19:30 18,3 C 17,3 C 55 % 1015,0 hPa 0,0 l/m 0 min 0 min 0,0 UV-I 77 W/m 2,6 km/h (1 Bft)
03.05.2013 19:32 18,3 C 17,3 C 56 % 1015,0 hPa 0,0 l/m 0 min 0 min 0,0 UV-I 74 W/m 0,0 km/h (0 Bft)
03.05.2013 19:34 18,3 C 17,3 C 57 % 1015,1 hPa 0,0 l/m 0 min 0 min 0,0 UV-I 74 W/m 2,6 km/h (1 Bft)
03.05.2013 19:36 18,3 C 17,3 C 56 % 1015,1 hPa 0,0 l/m 0 min 0 min 0,0 UV-I 72 W/m 0,0 km/h (0 Bft)
03.05.2013 19:38 18,3 C 17,3 C 56 % 1015,1 hPa 0,0 l/m 0 min 0 min 0,0 UV-I 70 W/m 2,6 km/h (1 Bft)
03.05.2013 19:40 18,3 C 17,3 C 56 % 1015,1 hPa 0,0 l/m 0 min 0 min 0,0 UV-I 70 W/m 10,3 km/h (2 Bft)
03.05.2013 19:42 18,2 C 17,3 C 56 % 1015,2 hPa 0,0 l/m 0 min 0 min 0,0 UV-I 72 W/m 7,7 km/h (2 Bft)
03.05.2013 19:44 18,2 C 17,3 C 57 % 1015,1 hPa 0,0 l/m 0 min 0 min 0,0 UV-I 70 W/m 2,6 km/h (1 Bft)
03.05.2013 19:46 18,2 C 17,3 C 57 % 1015,2 hPa 0,0 l/m 0 min 0 min 0,0 UV-I 69 W/m 7,7 km/h (2 Bft)
03.05.2013 19:48 18,2 C 16,8 C 57 % 1015,1 hPa 0,0 l/m 0 min 0 min 0,0 UV-I 65 W/m 7,7 km/h (2 Bft)
03.05.2013 19:50 18,1 C 16,8 C 57 % 1015,1 hPa 0,0 l/m 0 min 0 min 0,0 UV-I 63 W/m 2,6 km/h (1 Bft)
03.05.2013 19:52 18,1 C 16,8 C 57 % 1015,1 hPa 0,0 l/m 0 min 0 min 0,0 UV-I 62 W/m 2,6 km/h (1 Bft)
03.05.2013 19:54 18,1 C 16,8 C 57 % 1015,1 hPa 0,0 l/m 0 min 0 min 0,0 UV-I 62 W/m 2,6 km/h (1 Bft)
03.05.2013 19:56 18,1 C 16,8 C 57 % 1015,1 hPa 0,0 l/m 0 min 0 min 0,0 UV-I 63 W/m 2,6 km/h (1 Bft)
03.05.2013 19:58 18,1 C 16,8 C 57 % 1015,1 hPa 0,0 l/m 0 min 0 min 0,0 UV-I 65 W/m 0,0 km/h (0 Bft)
03.05.2013 20:00 18,0 C 16,8 C 58 % 1015,2 hPa 0,0 l/m 0 min 0 min 0,0 UV-I 63 W/m 2,6 km/h (1 Bft)
03.05.2013 20:02 17,9 C 16,8 C 58 % 1015,1 hPa 0,0 l/m 0 min 0 min 0,0 UV-I 63 W/m 10,3 km/h (2 Bft)
03.05.2013 20:05 17,9 C 16,8 C 59 % 1015,1 hPa 0,0 l/m 0 min 0 min 0,0 UV-I 63 W/m 12,9 km/h (3 Bft)
03.05.2013 20:10 17,8 C 16,8 C 60 % 1015,2 hPa 0,0 l/m 0 min 0 min 0,0 UV-I 58 W/m 15,4 km/h (3 Bft)
03.05.2013 20:14 17,7 C 16,2 C 60 % 1015,3 hPa 0,0 l/m 0 min 0 min 0,0 UV-I 51 W/m 7,7 km/h (2 Bft)
03.05.2013 20:16 17,6 C 16,2 C 61 % 1015,2 hPa 0,0 l/m 0 min 0 min 0,0 UV-I 49 W/m 10,3 km/h (2 Bft)
03.05.2013 20:18 17,6 C 16,2 C 61 % 1015,3 hPa 0,0 l/m 0 min 0 min 0,0 UV-I 47 W/m 10,3 km/h (2 Bft)
03.05.2013 20:20 17,5 C 16,2 C 61 % 1015,3 hPa 0,0 l/m 0 min 0 min 0,0 UV-I 44 W/m 2,6 km/h (1 Bft)
03.05.2013 20:22 17,4 C 16,2 C 61 % 1015,3 hPa 0,0 l/m 0 min 0 min 0,0 UV-I 40 W/m 12,9 km/h (3 Bft)
03.05.2013 20:24 17,3 C 16,2 C 61 % 1015,3 hPa 0,0 l/m 0 min 0 min 0,0 UV-I 39 W/m 2,6 km/h (1 Bft)
03.05.2013 20:26 17,3 C 15,7 C 61 % 1015,3 hPa 0,0 l/m 0 min 0 min 0,0 UV-I 35 W/m 7,7 km/h (2 Bft)
03.05.2013 20:28 17,3 C 15,7 C 61 % 1015,3 hPa 0,0 l/m 0 min 0 min 0,0 UV-I 33 W/m 2,6 km/h (1 Bft)
03.05.2013 20:30 17,2 C 15,7 C 62 % 1015,3 hPa 0,0 l/m 0 min 0 min 0,0 UV-I 32 W/m 2,6 km/h (1 Bft)
03.05.2013 20:32 17,1 C 15,7 C 62 % 1015,2 hPa 0,0 l/m 2 min 0 min 0,0 UV-I 30 W/m 2,6 km/h (1 Bft)
03.05.2013 20:34 17,1 C 15,7 C 62 % 1015,3 hPa 0,0 l/m 2 min 0 min 0,0 UV-I 28 W/m 10,3 km/h (2 Bft)
03.05.2013 20:36 17,0 C 15,7 C 62 % 1015,3 hPa 0,0 l/m 2 min 0 min 0,0 UV-I 25 W/m 10,3 km/h (2 Bft)
03.05.2013 20:38 16,9 C 15,7 C 62 % 1015,4 hPa 0,0 l/m 2 min 0 min 0,0 UV-I 23 W/m 2,6 km/h (1 Bft)
03.05.2013 20:40 16,9 C 15,7 C 62 % 1015,3 hPa 0,0 l/m 2 min 0 min 0,0 UV-I 23 W/m 10,3 km/h (2 Bft)
03.05.2013 20:42 16,9 C 15,7 C 63 % 1015,3 hPa 0,0 l/m 2 min 0 min 0,0 UV-I 19 W/m 2,6 km/h (1 Bft)
03.05.2013 20:44 16,9 C 15,1 C 63 % 1015,3 hPa 0,0 l/m 0 min 0 min 0,0 UV-I 18 W/m 0,0 km/h (0 Bft)
03.05.2013 20:46 16,9 C 15,1 C 63 % 1015,3 hPa 0,0 l/m 0 min 0 min 0,0 UV-I 16 W/m 2,6 km/h (1 Bft)
03.05.2013 20:48 16,9 C 15,1 C 63 % 1015,3 hPa 0,0 l/m 0 min 0 min 0,0 UV-I 14 W/m 0,0 km/h (0 Bft)
03.05.2013 20:50 16,9 C 14,6 C 63 % 1015,4 hPa 0,0 l/m 0 min 0 min 0,0 UV-I 12 W/m 0,0 km/h (0 Bft)
03.05.2013 20:52 16,9 C 14,6 C 63 % 1015,4 hPa 0,0 l/m 0 min 0 min 0,0 UV-I 11 W/m 0,0 km/h (0 Bft)
03.05.2013 20:54 16,8 C 14,6 C 63 % 1015,4 hPa 0,0 l/m 0 min 0 min 0,0 UV-I 11 W/m 2,6 km/h (1 Bft)
03.05.2013 20:56 16,8 C 14,6 C 63 % 1015,5 hPa 0,0 l/m 0 min 0 min 0,0 UV-I 9 W/m 0,0 km/h (0 Bft)
03.05.2013 20:58 16,8 C 14,6 C 63 % 1015,4 hPa 0,0 l/m 0 min 0 min 0,0 UV-I 9 W/m 0,0 km/h (0 Bft)
03.05.2013 21:00 16,8 C 14,6 C 63 % 1015,4 hPa 0,0 l/m 0 min 0 min 0,0 UV-I 7 W/m 0,0 km/h (0 Bft)
03.05.2013 21:02 16,8 C 14,0 C 63 % 1015,4 hPa 0,0 l/m 0 min 0 min 0,0 UV-I 7 W/m 0,0 km/h (0 Bft)
03.05.2013 21:04 16,7 C 14,0 C 63 % 1015,5 hPa 0,0 l/m 0 min 0 min 0,0 UV-I 5 W/m 0,0 km/h (0 Bft)
03.05.2013 21:06 16,7 C 14,0 C 63 % 1015,5 hPa 0,0 l/m 0 min 0 min 0,0 UV-I 5 W/m 0,0 km/h (0 Bft)
03.05.2013 21:08 16,7 C 13,4 C 63 % 1015,6 hPa 0,0 l/m 0 min 0 min 0,0 UV-I 0 W/m 0,0 km/h (0 Bft)
03.05.2013 21:10 16,7 C 13,4 C 64 % 1015,5 hPa 0,0 l/m 0 min 0 min 0,0 UV-I 0 W/m 0,0 km/h (0 Bft)
03.05.2013 21:12 16,6 C 13,4 C 64 % 1015,5 hPa 0,0 l/m 0 min 0 min 0,0 UV-I 0 W/m 0,0 km/h (0 Bft)
03.05.2013 21:14 16,6 C 12,9 C 64 % 1015,5 hPa 0,0 l/m 0 min 0 min 0,0 UV-I 0 W/m 0,0 km/h (0 Bft)
03.05.2013 21:16 16,5 C 12,9 C 64 % 1015,5 hPa 0,0 l/m 0 min 0 min 0,0 UV-I 0 W/m 0,0 km/h (0 Bft)
03.05.2013 21:18 16,4 C 12,9 C 65 % 1015,6 hPa 0,0 l/m 0 min 0 min 0,0 UV-I 0 W/m 0,0 km/h (0 Bft)
03.05.2013 21:20 16,4 C 12,9 C 65 % 1015,7 hPa 0,0 l/m 0 min 0 min 0,0 UV-I 0 W/m 0,0 km/h (0 Bft)
03.05.2013 21:22 16,3 C 12,3 C 65 % 1015,7 hPa 0,0 l/m 0 min 0 min 0,0 UV-I 0 W/m 0,0 km/h (0 Bft)
03.05.2013 21:24 16,2 C 12,3 C 65 % 1015,7 hPa 0,0 l/m 0 min 0 min 0,0 UV-I 0 W/m 0,0 km/h (0 Bft)
03.05.2013 21:26 16,2 C 12,3 C 66 % 1015,7 hPa 0,0 l/m 0 min 0 min 0,0 UV-I 0 W/m 0,0 km/h (0 Bft)
03.05.2013 21:28 16,1 C 12,3 C 66 % 1015,8 hPa 0,0 l/m 0 min 0 min 0,0 UV-I 0 W/m 0,0 km/h (0 Bft)
03.05.2013 21:30 16,0 C 12,3 C 66 % 1015,8 hPa 0,0 l/m 0 min 0 min 0,0 UV-I 0 W/m 0,0 km/h (0 Bft)
03.05.2013 21:32 15,9 C 11,8 C 66 % 1015,8 hPa 0,0 l/m 0 min 0 min 0,0 UV-I 0 W/m 0,0 km/h (0 Bft)
03.05.2013 21:34 15,9 C 11,8 C 66 % 1015,8 hPa 0,0 l/m 0 min 0 min 0,0 UV-I 0 W/m 0,0 km/h (0 Bft)
03.05.2013 21:36 15,8 C 11,8 C 67 % 1015,8 hPa 0,0 l/m 0 min 0 min 0,0 UV-I 0 W/m 0,0 km/h (0 Bft)
03.05.2013 21:38 15,7 C 11,8 C 67 % 1015,9 hPa 0,0 l/m 0 min 0 min 0,0 UV-I 0 W/m 0,0 km/h (0 Bft)
03.05.2013 21:40 15,6 C 11,8 C 68 % 1015,9 hPa 0,0 l/m 0 min 0 min 0,0 UV-I 0 W/m 0,0 km/h (0 Bft)
03.05.2013 21:42 15,6 C 11,8 C 68 % 1015,9 hPa 0,0 l/m 0 min 0 min 0,0 UV-I 0 W/m 0,0 km/h (0 Bft)
03.05.2013 21:44 15,5 C 11,8 C 68 % 1015,9 hPa 0,0 l/m 0 min 0 min 0,0 UV-I 0 W/m 0,0 km/h (0 Bft)
03.05.2013 21:46 15,4 C 11,8 C 69 % 1015,9 hPa 0,0 l/m 0 min 0 min 0,0 UV-I 0 W/m 0,0 km/h (0 Bft)
03.05.2013 21:48 15,3 C 11,8 C 69 % 1016,0 hPa 0,0 l/m 0 min 0 min 0,0 UV-I 0 W/m 0,0 km/h (0 Bft)
03.05.2013 21:50 15,3 C 11,8 C 69 % 1016,0 hPa 0,0 l/m 0 min 0 min 0,0 UV-I 0 W/m 0,0 km/h (0 Bft)
03.05.2013 21:52 15,2 C 11,8 C 69 % 1015,9 hPa 0,0 l/m 0 min 0 min 0,0 UV-I 0 W/m 0,0 km/h (0 Bft)
03.05.2013 21:54 15,2 C 11,8 C 69 % 1016,0 hPa 0,0 l/m 0 min 0 min 0,0 UV-I 0 W/m 0,0 km/h (0 Bft)
03.05.2013 21:56 15,1 C 11,2 C 69 % 1016,0 hPa 0,0 l/m 0 min 0 min 0,0 UV-I 0 W/m 0,0 km/h (0 Bft)
03.05.2013 21:58 15,1 C 11,2 C 70 % 1016,0 hPa 0,0 l/m 0 min 0 min 0,0 UV-I 0 W/m 0,0 km/h (0 Bft)
03.05.2013 22:00 15,0 C 11,2 C 70 % 1016,0 hPa 0,0 l/m 0 min 0 min 0,0 UV-I 0 W/m 0,0 km/h (0 Bft)
03.05.2013 22:02 14,9 C 11,2 C 70 % 1016,0 hPa 0,0 l/m 0 min 0 min 0,0 UV-I 0 W/m 0,0 km/h (0 Bft)
03.05.2013 22:04 14,8 C 11,2 C 70 % 1016,0 hPa 0,0 l/m 0 min 0 min 0,0 UV-I 0 W/m 0,0 km/h (0 Bft)
03.05.2013 22:06 14,8 C 11,2 C 71 % 1016,0 hPa 0,0 l/m 0 min 0 min 0,0 UV-I 0 W/m 0,0 km/h (0 Bft)
03.05.2013 22:08 14,7 C 11,2 C 71 % 1016,0 hPa 0,0 l/m 0 min 0 min 0,0 UV-I 0 W/m 0,0 km/h (0 Bft)
03.05.2013 22:10 14,7 C 11,2 C 71 % 1015,9 hPa 0,0 l/m 0 min 0 min 0,0 UV-I 0 W/m 0,0 km/h (0 Bft)
03.05.2013 22:12 14,6 C 11,2 C 71 % 1016,0 hPa 0,0 l/m 0 min 0 min 0,0 UV-I 0 W/m 0,0 km/h (0 Bft)
03.05.2013 22:14 14,5 C 11,2 C 71 % 1015,9 hPa 0,0 l/m 0 min 0 min 0,0 UV-I 0 W/m 0,0 km/h (0 Bft)
03.05.2013 22:16 14,4 C 11,2 C 71 % 1016,0 hPa 0,0 l/m 0 min 0 min 0,0 UV-I 0 W/m 0,0 km/h (0 Bft)
03.05.2013 22:18 14,4 C 11,2 C 71 % 1016,0 hPa 0,0 l/m 0 min 0 min 0,0 UV-I 0 W/m 0,0 km/h (0 Bft)
03.05.2013 22:20 14,3 C 11,2 C 71 % 1016,0 hPa 0,0 l/m 0 min 0 min 0,0 UV-I 0 W/m 0,0 km/h (0 Bft)
03.05.2013 22:22 14,3 C 11,2 C 72 % 1016,0 hPa 0,0 l/m 0 min 0 min 0,0 UV-I 0 W/m 0,0 km/h (0 Bft)
03.05.2013 22:24 14,2 C 10,7 C 72 % 1016,0 hPa 0,0 l/m 0 min 0 min 0,0 UV-I 0 W/m 0,0 km/h (0 Bft)
03.05.2013 22:26 14,2 C 10,7 C 72 % 1016,0 hPa 0,0 l/m 0 min 0 min 0,0 UV-I 0 W/m 0,0 km/h (0 Bft)
03.05.2013 22:28 14,1 C 10,7 C 72 % 1016,0 hPa 0,0 l/m 0 min 0 min 0,0 UV-I 0 W/m 0,0 km/h (0 Bft)
03.05.2013 22:30 14,0 C 10,7 C 72 % 1016,0 hPa 0,0 l/m 0 min 0 min 0,0 UV-I 0 W/m 0,0 km/h (0 Bft)
03.05.2013 22:32 14,0 C 10,7 C 72 % 1016,0 hPa 0,0 l/m 0 min 0 min 0,0 UV-I 0 W/m 0,0 km/h (0 Bft)
03.05.2013 22:34 14,0 C 10,7 C 72 % 1016,0 hPa 0,0 l/m 0 min 0 min 0,0 UV-I 0 W/m 0,0 km/h (0 Bft)
03.05.2013 22:36 14,0 C 10,7 C 73 % 1016,0 hPa 0,0 l/m 0 min 0 min 0,0 UV-I 0 W/m 0,0 km/h (0 Bft)
03.05.2013 22:38 14,0 C 10,7 C 73 % 1016,1 hPa 0,0 l/m 0 min 0 min 0,0 UV-I 0 W/m 0,0 km/h (0 Bft)
03.05.2013 22:40 13,9 C 10,7 C 73 % 1016,0 hPa 0,0 l/m 0 min 0 min 0,0 UV-I 0 W/m 0,0 km/h (0 Bft)
03.05.2013 22:42 13,8 C 10,7 C 73 % 1016,1 hPa 0,0 l/m 0 min 0 min 0,0 UV-I 0 W/m 0,0 km/h (0 Bft)
03.05.2013 22:44 13,8 C 10,7 C 73 % 1016,0 hPa 0,0 l/m 0 min 0 min 0,0 UV-I 0 W/m 0,0 km/h (0 Bft)
03.05.2013 22:46 13,8 C 10,7 C 73 % 1016,0 hPa 0,0 l/m 0 min 0 min 0,0 UV-I 0 W/m 0,0 km/h (0 Bft)
03.05.2013 22:48 13,7 C 10,7 C 73 % 1016,0 hPa 0,0 l/m 0 min 0 min 0,0 UV-I 0 W/m 0,0 km/h (0 Bft)
03.05.2013 22:50 13,7 C 10,7 C 73 % 1015,9 hPa 0,0 l/m 0 min 0 min 0,0 UV-I 0 W/m 0,0 km/h (0 Bft)
03.05.2013 22:52 13,7 C 10,7 C 73 % 1016,0 hPa 0,0 l/m 0 min 0 min 0,0 UV-I 0 W/m 0,0 km/h (0 Bft)
03.05.2013 22:54 13,6 C 10,7 C 74 % 1015,9 hPa 0,0 l/m 0 min 0 min 0,0 UV-I 0 W/m 0,0 km/h (0 Bft)
03.05.2013 22:56 13,6 C 10,7 C 74 % 1015,9 hPa 0,0 l/m 0 min 0 min 0,0 UV-I 0 W/m 0,0 km/h (0 Bft)
03.05.2013 22:58 13,6 C 10,7 C 74 % 1015,9 hPa 0,0 l/m 0 min 0 min 0,0 UV-I 0 W/m 0,0 km/h (0 Bft)
03.05.2013 23:00 13,5 C 10,7 C 74 % 1015,9 hPa 0,0 l/m 0 min 0 min 0,0 UV-I 0 W/m 0,0 km/h (0 Bft)
03.05.2013 23:02 13,4 C 10,7 C 74 % 1015,9 hPa 0,0 l/m 0 min 0 min 0,0 UV-I 0 W/m 0,0 km/h (0 Bft)
03.05.2013 23:04 13,4 C 10,7 C 75 % 1016,0 hPa 0,0 l/m 0 min 0 min 0,0 UV-I 0 W/m 0,0 km/h (0 Bft)
03.05.2013 23:06 13,4 C 10,7 C 75 % 1015,9 hPa 0,0 l/m 0 min 0 min 0,0 UV-I 0 W/m 0,0 km/h (0 Bft)
03.05.2013 23:08 13,4 C 10,7 C 75 % 1015,9 hPa 0,0 l/m 0 min 0 min 0,0 UV-I 0 W/m 0,0 km/h (0 Bft)
03.05.2013 23:10 13,3 C 10,7 C 75 % 1015,9 hPa 0,0 l/m 0 min 0 min 0,0 UV-I 0 W/m 0,0 km/h (0 Bft)
03.05.2013 23:12 13,3 C 10,7 C 75 % 1015,9 hPa 0,0 l/m 0 min 0 min 0,0 UV-I 0 W/m 0,0 km/h (0 Bft)
03.05.2013 23:14 13,3 C 10,7 C 75 % 1015,9 hPa 0,0 l/m 0 min 0 min 0,0 UV-I 0 W/m 0,0 km/h (0 Bft)
03.05.2013 23:16 13,2 C 10,7 C 75 % 1015,9 hPa 0,0 l/m 0 min 0 min 0,0 UV-I 0 W/m 0,0 km/h (0 Bft)
03.05.2013 23:18 13,2 C 10,7 C 75 % 1015,9 hPa 0,0 l/m 0 min 0 min 0,0 UV-I 0 W/m 0,0 km/h (0 Bft)
03.05.2013 23:20 13,2 C 10,7 C 76 % 1015,8 hPa 0,0 l/m 0 min 0 min 0,0 UV-I 0 W/m 0,0 km/h (0 Bft)
03.05.2013 23:22 13,1 C 10,1 C 76 % 1015,9 hPa 0,0 l/m 0 min 0 min 0,0 UV-I 0 W/m 0,0 km/h (0 Bft)
03.05.2013 23:24 13,1 C 10,1 C 76 % 1015,8 hPa 0,0 l/m 0 min 0 min 0,0 UV-I 0 W/m 0,0 km/h (0 Bft)
03.05.2013 23:26 13,1 C 10,1 C 76 % 1015,9 hPa 0,0 l/m 0 min 0 min 0,0 UV-I 0 W/m 0,0 km/h (0 Bft)
03.05.2013 23:28 13,0 C 10,1 C 76 % 1015,8 hPa 0,0 l/m 0 min 0 min 0,0 UV-I 0 W/m 0,0 km/h (0 Bft)
03.05.2013 23:30 12,9 C 10,1 C 76 % 1015,8 hPa 0,0 l/m 0 min 0 min 0,0 UV-I 0 W/m 0,0 km/h (0 Bft)
03.05.2013 23:32 12,9 C 10,1 C 76 % 1015,9 hPa 0,0 l/m 0 min 0 min 0,0 UV-I 0 W/m 0,0 km/h (0 Bft)
03.05.2013 23:34 12,9 C 10,1 C 76 % 1015,9 hPa 0,0 l/m 0 min 0 min 0,0 UV-I 0 W/m 0,0 km/h (0 Bft)
03.05.2013 23:36 12,8 C 10,1 C 76 % 1015,9 hPa 0,0 l/m 0 min 0 min 0,0 UV-I 0 W/m 0,0 km/h (0 Bft)
03.05.2013 23:38 12,8 C 10,1 C 76 % 1015,9 hPa 0,0 l/m 0 min 0 min 0,0 UV-I 0 W/m 0,0 km/h (0 Bft)
03.05.2013 23:40 12,8 C 9,6 C 76 % 1015,9 hPa 0,0 l/m 0 min 0 min 0,0 UV-I 0 W/m 0,0 km/h (0 Bft)
03.05.2013 23:42 12,8 C 9,6 C 76 % 1015,8 hPa 0,0 l/m 0 min 0 min 0,0 UV-I 0 W/m 0,0 km/h (0 Bft)
03.05.2013 23:44 12,7 C 9,6 C 76 % 1015,9 hPa 0,0 l/m 0 min 0 min 0,0 UV-I 0 W/m 0,0 km/h (0 Bft)
03.05.2013 23:46 12,7 C 9,6 C 76 % 1015,9 hPa 0,0 l/m 0 min 0 min 0,0 UV-I 0 W/m 0,0 km/h (0 Bft)
03.05.2013 23:48 12,7 C 9,6 C 77 % 1015,9 hPa 0,0 l/m 0 min 0 min 0,0 UV-I 0 W/m 0,0 km/h (0 Bft)
03.05.2013 23:50 12,6 C 9,6 C 77 % 1016,0 hPa 0,0 l/m 0 min 0 min 0,0 UV-I 0 W/m 0,0 km/h (0 Bft)
03.05.2013 23:52 12,6 C 10,1 C 77 % 1015,9 hPa 0,0 l/m 0 min 0 min 0,0 UV-I 0 W/m 5,1 km/h (1 Bft)
03.05.2013 23:54 12,5 C 10,1 C 77 % 1016,0 hPa 0,0 l/m 0 min 0 min 0,0 UV-I 0 W/m 0,0 km/h (0 Bft)
03.05.2013 23:56 12,5 C 10,1 C 77 % 1016,0 hPa 0,0 l/m 0 min 0 min 0,0 UV-I 0 W/m 0,0 km/h (0 Bft)
03.05.2013 23:58 12,4 C 10,1 C 77 % 1016,0 hPa 0,0 l/m 0 min 0 min 0,0 UV-I 0 W/m 0,0 km/h (0 Bft)
_ Min-Zeit 06:48 05:46 16:22 18:52 - - - - - 00:00
Minimum _ 7,8 C 6,2 C 53 % 1014,9 hPa - - - - - 0,0 km/h (0 Bft)
_ Max-Zeit 15:38 13:38 08:02 00:00 00:00 08:24 00:00 13:48 13:08 13:06
Maximum _ 19,9 C 24,6 C 95 % 1018,2 hPa 0,0 l/m 2 min 0 min 2,9 UV-I 902 W/m 23,2 km/h
NW (4 Bft)
Durchschnitt _ 14,3 C 13,8 C 73 % 1016,5 hPa #0,0 l/m #6:00 h #0 min. 1,5 UV-I 311 W/m 4,5 km/h (1 Bft)
© 2013 W. Hausmann